Contract 0x5941f87eb62737ec5ebbecab3e373c40fe40566b 3

 

Contract Overview

Moon Nation Game: MNG Token
 
Txn Hash Method
Block
From
To
Value [Txn Fee]
0xf7d8190a735801680bc0ee88cf87a98ac5f18b8f0240e1fdc1054b85af574bebApprove112431692021-09-26 6:04:271 hr 15 mins ago0x7daf133c680f28b46530e5e09d72361ad4323cee IN  Moon Nation Game: MNG Token0 BNB0.00012626
0xbba05015e91ff383358c0182b0009b6bd62bf2298deef380c06bed7185566243Approve112431652021-09-26 6:04:151 hr 15 mins ago0x7daf133c680f28b46530e5e09d72361ad4323cee IN  Moon Nation Game: MNG Token0 BNB0.00022226
0x06017a391e0ff16dbb654276feae5c35a055f67382da5afc804c968690e6c4afApprove112430062021-09-26 5:56:101 hr 23 mins ago0xd99e86b5433be782843816358e55c5cbe2b19c5f IN  Moon Nation Game: MNG Token0 BNB0.00022226
0x801272648991aea0ba8fb7d7b050ee774287fffb87477da2cc96d50d0afd4799Approve112412722021-09-26 4:28:152 hrs 51 mins ago0x81a7e14884a9ae17948726131af3591273e5391a IN  Moon Nation Game: MNG Token0 BNB0.00022226
0x3c4f404811a77b29b6902be67c6d6540efd76aaec3140c649177d5f83d4f28fdApprove112410022021-09-26 4:14:453 hrs 5 mins ago0xa8a33376105de8b62d13fc7211422d46d69ae14f IN  Moon Nation Game: MNG Token0 BNB0.00022226
0x03a4d351f652b414b9e297bcfcd27ef514ca90ed67b25ff52e84e0b187b5dc70Approve112403492021-09-26 3:41:503 hrs 38 mins ago0x3824d7d806f3ac2c2fb2ebf59b06a9a7c5ec6736 IN  Moon Nation Game: MNG Token0 BNB0.00022226
0xdd49d17ce6f32c570b1e65c38c0c13876717b4102aa957b4cda1e39aa52613b8Transfer112403152021-09-26 3:40:083 hrs 39 mins ago0xa8a33376105de8b62d13fc7211422d46d69ae14f IN  Moon Nation Game: MNG Token0 BNB0.0005
0x5700bc508792377126621ecb5e45b72f1405fcce326d8fab9391bdb017a09d3cApprove112359072021-09-25 23:58:507 hrs 21 mins ago0xaedd59651d7ee9e4d7706bb1cbd846bcff277003 IN  Moon Nation Game: MNG Token0 BNB0.000138885
0x0396dff904370f754d52f222683b944ed765bb63fc9d66908a3539466a442e5fApprove112342232021-09-25 22:34:368 hrs 45 mins ago0xdbe6dfa08c89879ce8a796132ffe99c647a0735f IN  Moon Nation Game: MNG Token0 BNB0.00022226
0xa9b0070a6b42b45f1e8dee1a8eb5d27fb606779af3f0258eef95a4d851e6c1c1Approve112339522021-09-25 22:21:038 hrs 58 mins ago0x8c8ea7adc4617c5ad3d3e7b4a3801484cd533e7d IN  Moon Nation Game: MNG Token0 BNB0.00022226
0x90731a7f57dae5552fc6509c5da79dcea734761bf9227b626adc6e35a0a9736eTransfer112338762021-09-25 22:17:159 hrs 2 mins ago0x1ccc30396209d1ec245fe7a48895312b0c563b42 IN  Moon Nation Game: MNG Token0 BNB0.001230245
0x1d3cfb3224953e08f2d085efd5c6477941745fe3b6c02b9bc584a42b3fd84793Approve112334812021-09-25 21:57:309 hrs 22 mins ago0x4f4a1a1abe63e0761403c211608d3d681377f0a9 IN  Moon Nation Game: MNG Token0 BNB0.00022226
0xefced0d64b6b73e98d8fa0bc884b12908acb020334d72a7a2392d0c35345eda2Approve112333222021-09-25 21:49:339 hrs 30 mins ago0xaedd59651d7ee9e4d7706bb1cbd846bcff277003 IN  Moon Nation Game: MNG Token0 BNB0.00012626
0x28b3149aea48147d8ce1256a11ea6a151756bd59103430a93361ea59606a5ef9Approve112333162021-09-25 21:49:159 hrs 30 mins ago0xaedd59651d7ee9e4d7706bb1cbd846bcff277003 IN  Moon Nation Game: MNG Token0 BNB0.00022226
0x097a5b8e0c2ce8d9597f922e0533db60d54aded7653f47a804766bca7444e314Approve112325062021-09-25 21:08:4510 hrs 11 mins ago0xb31ebad12b1ab7c7f06845972e01aebe2f53a355 IN  Moon Nation Game: MNG Token0 BNB0.00022226
0x6156bf849c173b7766b261a3b80ef0f7ea4e459839da1d486f4876776787c632Approve112301872021-09-25 19:12:3912 hrs 7 mins ago0x44b6559841061aff4140b4aad61c1d393249adb4 IN  Moon Nation Game: MNG Token0 BNB0.000266712
0x17e056ee99c8edc5c8764c95b745667c7a887383a1fa711e24eacd21d3be218cTransfer112293692021-09-25 18:31:4512 hrs 48 mins agoHotbit 2 IN  Moon Nation Game: MNG Token0 BNB0.001617259
0xd9773b4209fb5b501f5c16e589049eaf6ecd39cd904b89a63e78e25bb6c5d6beTransfer112290242021-09-25 18:14:0013 hrs 5 mins ago0x0eee38e49024cd8b73ba1ec05afd4f644e5479ad IN  Moon Nation Game: MNG Token0 BNB0.001134185
0x716ae3f8431b5ebb6150a5603bd56559893470de1bd297101a1814a27a494708Approve112279652021-09-25 17:20:5613 hrs 58 mins ago0x0746bd69e35f553001ca59094611b94567edf537 IN  Moon Nation Game: MNG Token0 BNB0.00022226
0xd25d2aa717df31c01f00f813daf8ba0e22b10620950e820fba83236c450584f9Approve112276742021-09-25 17:06:2214 hrs 13 mins ago0x7c28aa7caebb6b5631d1eaa67f3dbc79c9d1d3ae IN  Moon Nation Game: MNG Token0 BNB0.00022226
0x384d1c279fd29922f9926e64dc38dd8001156e32c74233658d685946f95047e6Transfer112271932021-09-25 16:41:5814 hrs 37 mins ago0xb38147ee1e3291776cb73550e002b7fa67240589 IN  Moon Nation Game: MNG Token0 BNB0.001230245
0xcc6ecb17b31b23d1755114fce8350fd9364fd2abc55316847aefaba6007d6840Transfer112266792021-09-25 16:14:3215 hrs 5 mins ago0x8c2901eda5b11acb2c791b56d7890e36237dcc03 IN  Moon Nation Game: MNG Token0 BNB0.001617343
0xfb6498c3c73da49b274520e4f2c9a40d205b1af48290917ba26d6a36e2a8ab29Approve112264222021-09-25 16:01:4115 hrs 18 mins ago0x5e42e9dae14bd0cc8f51af39119a44cdadb2c05c IN  Moon Nation Game: MNG Token0 BNB0.00022226
0xd5ed6ca87ee53c25024760a7ca32474c8593a23bc2045dc8d96bf8151af61c5dApprove112263322021-09-25 15:57:1115 hrs 22 mins ago0x503d1be5b1b73d6340725cddc0fc231114992953 IN  Moon Nation Game: MNG Token0 BNB0.00022226
0x310947757d88e964ef5041f2039646772c9cb72f69c5dd5e416d053601719054Approve112244572021-09-25 14:23:2516 hrs 56 mins ago0xf4751b0fb43904928d48a81cd7bfad63f1f3348a IN  Moon Nation Game: MNG Token0 BNB0.00022226
[ Download CSV Export 

OVERVIEW

Moon Nation Game is the space-based role playing game being built on Binance Smart Chain with Moon Nation Game (MNG) as native token. $MNG Token will power the entire ecosystem of rewards, in game assets.

Latest 25 internal transaction
Parent Txn Hash Block From To Value
0xfbfa69740900ca322a473b24bfd8b7d17e294df6fd0e4d79d44ed4dced54e4d5109755962021-09-16 21:57:359 days 9 hrs ago PancakeSwap: Router v2 Moon Nation Game: MNG Token0.389200496274339551 BNB
0xfbfa69740900ca322a473b24bfd8b7d17e294df6fd0e4d79d44ed4dced54e4d5109755962021-09-16 21:57:359 days 9 hrs ago Moon Nation Game: MNG Token PancakeSwap: Router v240.57895338740496474 BNB
0xfbfa69740900ca322a473b24bfd8b7d17e294df6fd0e4d79d44ed4dced54e4d5109755962021-09-16 21:57:359 days 9 hrs ago PancakeSwap: Router v2 Moon Nation Game: MNG Token40.57895338740496474 BNB
0xbe7f374f6bc9e50348f800ec9c8507178c733154f400989fd349eac8cfae3835106751642021-09-06 9:36:2019 days 21 hrs ago PancakeSwap: Router v2 Moon Nation Game: MNG Token0.434004615796208008 BNB
0xbe7f374f6bc9e50348f800ec9c8507178c733154f400989fd349eac8cfae3835106751642021-09-06 9:36:2019 days 21 hrs ago Moon Nation Game: MNG Token PancakeSwap: Router v243.359571406906181654 BNB
0xbe7f374f6bc9e50348f800ec9c8507178c733154f400989fd349eac8cfae3835106751642021-09-06 9:36:2019 days 21 hrs ago PancakeSwap: Router v2 Moon Nation Game: MNG Token43.359571406906181654 BNB
0x386140721c5868185fb6f04709df307f18a4ba61d4c6e97a73dbdba03036ee66104434242021-08-29 6:33:2128 days 46 mins ago PancakeSwap: Router v2 Moon Nation Game: MNG Token0.709129913368578075 BNB
0x386140721c5868185fb6f04709df307f18a4ba61d4c6e97a73dbdba03036ee66104434242021-08-29 6:33:2128 days 46 mins ago Moon Nation Game: MNG Token PancakeSwap: Router v258.810827671850878005 BNB
0x386140721c5868185fb6f04709df307f18a4ba61d4c6e97a73dbdba03036ee66104434242021-08-29 6:33:2128 days 46 mins ago PancakeSwap: Router v2 Moon Nation Game: MNG Token58.810827671850878005 BNB
0x9098cb090183cb1e8238ad4bf723663652bf4226b4e160ea76f9b5a3661da8ab102944752021-08-24 0:55:3833 days 6 hrs ago PancakeSwap: Router v2 Moon Nation Game: MNG Token0.799504101154624649 BNB
0x9098cb090183cb1e8238ad4bf723663652bf4226b4e160ea76f9b5a3661da8ab102944752021-08-24 0:55:3833 days 6 hrs ago Moon Nation Game: MNG Token PancakeSwap: Router v264.255616977575070218 BNB
0x9098cb090183cb1e8238ad4bf723663652bf4226b4e160ea76f9b5a3661da8ab102944752021-08-24 0:55:3833 days 6 hrs ago PancakeSwap: Router v2 Moon Nation Game: MNG Token64.255616977575070218 BNB
0xb5f8390ac8de4c81865def9ad19b194d22f1db7a68c63bb08894d78fa4869c61102550642021-08-22 15:54:1334 days 15 hrs ago PancakeSwap: Router v2 Moon Nation Game: MNG Token1.056859082146365149 BNB
0xb5f8390ac8de4c81865def9ad19b194d22f1db7a68c63bb08894d78fa4869c61102550642021-08-22 15:54:1334 days 15 hrs ago Moon Nation Game: MNG Token PancakeSwap: Router v276.552664454589033799 BNB
0xb5f8390ac8de4c81865def9ad19b194d22f1db7a68c63bb08894d78fa4869c61102550642021-08-22 15:54:1334 days 15 hrs ago PancakeSwap: Router v2 Moon Nation Game: MNG Token76.552664454589033799 BNB
0xf29dcdb6da75efb24035ea9be5430aacd13b7792ae370bd38c234e2e20c0c9fb101355432021-08-18 11:35:5138 days 19 hrs ago PancakeSwap: Router v2 Moon Nation Game: MNG Token0.31917412265814468 BNB
0xf29dcdb6da75efb24035ea9be5430aacd13b7792ae370bd38c234e2e20c0c9fb101355432021-08-18 11:35:5138 days 19 hrs ago Moon Nation Game: MNG Token PancakeSwap: Router v236.013256306114049327 BNB
0xf29dcdb6da75efb24035ea9be5430aacd13b7792ae370bd38c234e2e20c0c9fb101355432021-08-18 11:35:5138 days 19 hrs ago PancakeSwap: Router v2 Moon Nation Game: MNG Token36.013256306114049327 BNB
0x9e79836410ac27494f99bf5477f4a47e0a7627e8bbe8936ea40d376c8a26905699696682021-08-12 16:25:2644 days 14 hrs ago PancakeSwap: Router v2 Moon Nation Game: MNG Token0.224493616412777114 BNB
0x9e79836410ac27494f99bf5477f4a47e0a7627e8bbe8936ea40d376c8a26905699696682021-08-12 16:25:2644 days 14 hrs ago Moon Nation Game: MNG Token PancakeSwap: Router v228.833487338363782443 BNB
0x9e79836410ac27494f99bf5477f4a47e0a7627e8bbe8936ea40d376c8a26905699696682021-08-12 16:25:2644 days 14 hrs ago PancakeSwap: Router v2 Moon Nation Game: MNG Token28.833487338363782443 BNB
0xa3e8c9e6100327a4f15e78bbdb6b7f47a85b3f23b2424ff6943841cc92ee76d599695202021-08-12 16:17:4544 days 15 hrs ago PancakeSwap: Router v2 Moon Nation Game: MNG Token28.833487338363782443 BNB
0xe7d297c49031385742ef8651d5638e26362fceaac9e71aa16f38b89a8f9c2dc398582572021-08-08 17:03:0948 days 14 hrs ago PancakeSwap: Router v2 Moon Nation Game: MNG Token0.133630817672050703 BNB
0xe7d297c49031385742ef8651d5638e26362fceaac9e71aa16f38b89a8f9c2dc398582572021-08-08 17:03:0948 days 14 hrs ago Moon Nation Game: MNG Token PancakeSwap: Router v220.984652688693373862 BNB
0xe7d297c49031385742ef8651d5638e26362fceaac9e71aa16f38b89a8f9c2dc398582572021-08-08 17:03:0948 days 14 hrs ago PancakeSwap: Router v2 Moon Nation Game: MNG Token20.984652688693373862 BNB
[ Download CSV Export 
Loading

Contract Source Code Verified (Exact Match)

Contract Name:
MoonNation

Compiler Version
v0.6.12+commit.27d51765

Optimization Enabled:
Yes with 200 runs

Other Settings:
default evmVersion, None license

Contract Source Code (Solidity)

/**
 *Submitted for verification at BscScan.com on 2021-05-26
*/

pragma solidity =0.6.12;
// SPDX-License-Identifier: Unlicensed
interface IERC20 {

    function totalSupply() external view returns (uint256);

    /**
     * @dev Returns the amount of tokens owned by `account`.
     */
    function balanceOf(address account) external view returns (uint256);

    /**
     * @dev Moves `amount` tokens from the caller's account to `recipient`.
     *
     * Returns a boolean value indicating whether the operation succeeded.
     *
     * Emits a {Transfer} event.
     */
    function transfer(address recipient, uint256 amount) external returns (bool);

    /**
     * @dev Returns the remaining number of tokens that `spender` will be
     * allowed to spend on behalf of `owner` through {transferFrom}. This is
     * zero by default.
     *
     * This value changes when {approve} or {transferFrom} are called.
     */
    function allowance(address owner, address spender) external view returns (uint256);

    /**
     * @dev Sets `amount` as the allowance of `spender` over the caller's tokens.
     *
     * Returns a boolean value indicating whether the operation succeeded.
     *
     * IMPORTANT: Beware that changing an allowance with this method brings the risk
     * that someone may use both the old and the new allowance by unfortunate
     * transaction ordering. One possible solution to mitigate this race
     * condition is to first reduce the spender's allowance to 0 and set the
     * desired value afterwards:
     * https://github.com/ethereum/EIPs/issues/20#issuecomment-263524729
     *
     * Emits an {Approval} event.
     */
    function approve(address spender, uint256 amount) external returns (bool);

    /**
     * @dev Moves `amount` tokens from `sender` to `recipient` using the
     * allowance mechanism. `amount` is then deducted from the caller's
     * allowance.
     *
     * Returns a boolean value indicating whether the operation succeeded.
     *
     * Emits a {Transfer} event.
     */
    function transferFrom(address sender, address recipient, uint256 amount) external returns (bool);

    /**
     * @dev Emitted when `value` tokens are moved from one account (`from`) to
     * another (`to`).
     *
     * Note that `value` may be zero.
     */
    event Transfer(address indexed from, address indexed to, uint256 value);

    /**
     * @dev Emitted when the allowance of a `spender` for an `owner` is set by
     * a call to {approve}. `value` is the new allowance.
     */
    event Approval(address indexed owner, address indexed spender, uint256 value);
}



/**
 * @dev Wrappers over Solidity's arithmetic operations with added overflow
 * checks.
 *
 * Arithmetic operations in Solidity wrap on overflow. This can easily result
 * in bugs, because programmers usually assume that an overflow raises an
 * error, which is the standard behavior in high level programming languages.
 * `SafeMath` restores this intuition by reverting the transaction when an
 * operation overflows.
 *
 * Using this library instead of the unchecked operations eliminates an entire
 * class of bugs, so it's recommended to use it always.
 */
 
library SafeMath {
    /**
     * @dev Returns the addition of two unsigned integers, reverting on
     * overflow.
     *
     * Counterpart to Solidity's `+` operator.
     *
     * Requirements:
     *
     * - Addition cannot overflow.
     */
    function add(uint256 a, uint256 b) internal pure returns (uint256) {
        uint256 c = a + b;
        require(c >= a, "SafeMath: addition overflow");

        return c;
    }

    /**
     * @dev Returns the subtraction of two unsigned integers, reverting on
     * overflow (when the result is negative).
     *
     * Counterpart to Solidity's `-` operator.
     *
     * Requirements:
     *
     * - Subtraction cannot overflow.
     */
    function sub(uint256 a, uint256 b) internal pure returns (uint256) {
        return sub(a, b, "SafeMath: subtraction overflow");
    }

    /**
     * @dev Returns the subtraction of two unsigned integers, reverting with custom message on
     * overflow (when the result is negative).
     *
     * Counterpart to Solidity's `-` operator.
     *
     * Requirements:
     *
     * - Subtraction cannot overflow.
     */
    function sub(uint256 a, uint256 b, string memory errorMessage) internal pure returns (uint256) {
        require(b <= a, errorMessage);
        uint256 c = a - b;

        return c;
    }

    /**
     * @dev Returns the multiplication of two unsigned integers, reverting on
     * overflow.
     *
     * Counterpart to Solidity's `*` operator.
     *
     * Requirements:
     *
     * - Multiplication cannot overflow.
     */
    function mul(uint256 a, uint256 b) internal pure returns (uint256) {
        // Gas optimization: this is cheaper than requiring 'a' not being zero, but the
        // benefit is lost if 'b' is also tested.
        // See: https://github.com/OpenZeppelin/openzeppelin-contracts/pull/522
        if (a == 0) {
            return 0;
        }

        uint256 c = a * b;
        require(c / a == b, "SafeMath: multiplication overflow");

        return c;
    }

    /**
     * @dev Returns the integer division of two unsigned integers. Reverts on
     * division by zero. The result is rounded towards zero.
     *
     * Counterpart to Solidity's `/` operator. Note: this function uses a
     * `revert` opcode (which leaves remaining gas untouched) while Solidity
     * uses an invalid opcode to revert (consuming all remaining gas).
     *
     * Requirements:
     *
     * - The divisor cannot be zero.
     */
    function div(uint256 a, uint256 b) internal pure returns (uint256) {
        return div(a, b, "SafeMath: division by zero");
    }

    /**
     * @dev Returns the integer division of two unsigned integers. Reverts with custom message on
     * division by zero. The result is rounded towards zero.
     *
     * Counterpart to Solidity's `/` operator. Note: this function uses a
     * `revert` opcode (which leaves remaining gas untouched) while Solidity
     * uses an invalid opcode to revert (consuming all remaining gas).
     *
     * Requirements:
     *
     * - The divisor cannot be zero.
     */
    function div(uint256 a, uint256 b, string memory errorMessage) internal pure returns (uint256) {
        require(b > 0, errorMessage);
        uint256 c = a / b;
        // assert(a == b * c + a % b); // There is no case in which this doesn't hold

        return c;
    }

    /**
     * @dev Returns the remainder of dividing two unsigned integers. (unsigned integer modulo),
     * Reverts when dividing by zero.
     *
     * Counterpart to Solidity's `%` operator. This function uses a `revert`
     * opcode (which leaves remaining gas untouched) while Solidity uses an
     * invalid opcode to revert (consuming all remaining gas).
     *
     * Requirements:
     *
     * - The divisor cannot be zero.
     */
    function mod(uint256 a, uint256 b) internal pure returns (uint256) {
        return mod(a, b, "SafeMath: modulo by zero");
    }

    /**
     * @dev Returns the remainder of dividing two unsigned integers. (unsigned integer modulo),
     * Reverts with custom message when dividing by zero.
     *
     * Counterpart to Solidity's `%` operator. This function uses a `revert`
     * opcode (which leaves remaining gas untouched) while Solidity uses an
     * invalid opcode to revert (consuming all remaining gas).
     *
     * Requirements:
     *
     * - The divisor cannot be zero.
     */
    function mod(uint256 a, uint256 b, string memory errorMessage) internal pure returns (uint256) {
        require(b != 0, errorMessage);
        return a % b;
    }
}

abstract contract Context {
    function _msgSender() internal view virtual returns (address payable) {
        return payable(msg.sender);
    }

    function _msgData() internal view virtual returns (bytes memory) {
        this; // silence state mutability warning without generating bytecode - see https://github.com/ethereum/solidity/issues/2691
        return msg.data;
    }
}


/**
 * @dev Collection of functions related to the address type
 */
library Address {
    /**
     * @dev Returns true if `account` is a contract.
     *
     * [IMPORTANT]
     * ====
     * It is unsafe to assume that an address for which this function returns
     * false is an externally-owned account (EOA) and not a contract.
     *
     * Among others, `isContract` will return false for the following
     * types of addresses:
     *
     *  - an externally-owned account
     *  - a contract in construction
     *  - an address where a contract will be created
     *  - an address where a contract lived, but was destroyed
     * ====
     */
    function isContract(address account) internal view returns (bool) {
        // According to EIP-1052, 0x0 is the value returned for not-yet created accounts
        // and 0xc5d2460186f7233c927e7db2dcc703c0e500b653ca82273b7bfad8045d85a470 is returned
        // for accounts without code, i.e. `keccak256('')`
        bytes32 codehash;
        bytes32 accountHash = 0xc5d2460186f7233c927e7db2dcc703c0e500b653ca82273b7bfad8045d85a470;
        // solhint-disable-next-line no-inline-assembly
        assembly { codehash := extcodehash(account) }
        return (codehash != accountHash && codehash != 0x0);
    }

    /**
     * @dev Replacement for Solidity's `transfer`: sends `amount` wei to
     * `recipient`, forwarding all available gas and reverting on errors.
     *
     * https://eips.ethereum.org/EIPS/eip-1884[EIP1884] increases the gas cost
     * of certain opcodes, possibly making contracts go over the 2300 gas limit
     * imposed by `transfer`, making them unable to receive funds via
     * `transfer`. {sendValue} removes this limitation.
     *
     * https://diligence.consensys.net/posts/2019/09/stop-using-soliditys-transfer-now/[Learn more].
     *
     * IMPORTANT: because control is transferred to `recipient`, care must be
     * taken to not create reentrancy vulnerabilities. Consider using
     * {ReentrancyGuard} or the
     * https://solidity.readthedocs.io/en/v0.5.11/security-considerations.html#use-the-checks-effects-interactions-pattern[checks-effects-interactions pattern].
     */
    function sendValue(address payable recipient, uint256 amount) internal {
        require(address(this).balance >= amount, "Address: insufficient balance");

        // solhint-disable-next-line avoid-low-level-calls, avoid-call-value
        (bool success, ) = recipient.call{ value: amount }("");
        require(success, "Address: unable to send value, recipient may have reverted");
    }

    /**
     * @dev Performs a Solidity function call using a low level `call`. A
     * plain`call` is an unsafe replacement for a function call: use this
     * function instead.
     *
     * If `target` reverts with a revert reason, it is bubbled up by this
     * function (like regular Solidity function calls).
     *
     * Returns the raw returned data. To convert to the expected return value,
     * use https://solidity.readthedocs.io/en/latest/units-and-global-variables.html?highlight=abi.decode#abi-encoding-and-decoding-functions[`abi.decode`].
     *
     * Requirements:
     *
     * - `target` must be a contract.
     * - calling `target` with `data` must not revert.
     *
     * _Available since v3.1._
     */
    function functionCall(address target, bytes memory data) internal returns (bytes memory) {
      return functionCall(target, data, "Address: low-level call failed");
    }

    /**
     * @dev Same as {xref-Address-functionCall-address-bytes-}[`functionCall`], but with
     * `errorMessage` as a fallback revert reason when `target` reverts.
     *
     * _Available since v3.1._
     */
    function functionCall(address target, bytes memory data, string memory errorMessage) internal returns (bytes memory) {
        return _functionCallWithValue(target, data, 0, errorMessage);
    }

    /**
     * @dev Same as {xref-Address-functionCall-address-bytes-}[`functionCall`],
     * but also transferring `value` wei to `target`.
     *
     * Requirements:
     *
     * - the calling contract must have an ETH balance of at least `value`.
     * - the called Solidity function must be `payable`.
     *
     * _Available since v3.1._
     */
    function functionCallWithValue(address target, bytes memory data, uint256 value) internal returns (bytes memory) {
        return functionCallWithValue(target, data, value, "Address: low-level call with value failed");
    }

    /**
     * @dev Same as {xref-Address-functionCallWithValue-address-bytes-uint256-}[`functionCallWithValue`], but
     * with `errorMessage` as a fallback revert reason when `target` reverts.
     *
     * _Available since v3.1._
     */
    function functionCallWithValue(address target, bytes memory data, uint256 value, string memory errorMessage) internal returns (bytes memory) {
        require(address(this).balance >= value, "Address: insufficient balance for call");
        return _functionCallWithValue(target, data, value, errorMessage);
    }

    function _functionCallWithValue(address target, bytes memory data, uint256 weiValue, string memory errorMessage) private returns (bytes memory) {
        require(isContract(target), "Address: call to non-contract");

        // solhint-disable-next-line avoid-low-level-calls
        (bool success, bytes memory returndata) = target.call{ value: weiValue }(data);
        if (success) {
            return returndata;
        } else {
            // Look for revert reason and bubble it up if present
            if (returndata.length > 0) {
                // The easiest way to bubble the revert reason is using memory via assembly

                // solhint-disable-next-line no-inline-assembly
                assembly {
                    let returndata_size := mload(returndata)
                    revert(add(32, returndata), returndata_size)
                }
            } else {
                revert(errorMessage);
            }
        }
    }
}

/**
 * @dev Contract module which provides a basic access control mechanism, where
 * there is an account (an owner) that can be granted exclusive access to
 * specific functions.
 *
 * By default, the owner account will be the one that deploys the contract. This
 * can later be changed with {transferOwnership}.
 *
 * This module is used through inheritance. It will make available the modifier
 * `onlyOwner`, which can be applied to your functions to restrict their use to
 * the owner.
 */
contract Ownable is Context {
    address private _owner;
    address private _previousOwner;
    uint256 private _lockTime;

    event OwnershipTransferred(address indexed previousOwner, address indexed newOwner);

    /**
     * @dev Initializes the contract setting the deployer as the initial owner.
     */
    constructor () internal {
        address msgSender = _msgSender();
        _owner = msgSender;
        emit OwnershipTransferred(address(0), msgSender);
    }

    /**
     * @dev Returns the address of the current owner.
     */
    function owner() public view returns (address) {
        return _owner;
    }

    /**
     * @dev Throws if called by any account other than the owner.
     */
    modifier onlyOwner() {
        require(_owner == _msgSender(), "Ownable: caller is not the owner");
        _;
    }

     /**
     * @dev Leaves the contract without owner. It will not be possible to call
     * `onlyOwner` functions anymore. Can only be called by the current owner.
     *
     * NOTE: Renouncing ownership will leave the contract without an owner,
     * thereby removing any functionality that is only available to the owner.
     */
    function renounceOwnership() public virtual onlyOwner {
        emit OwnershipTransferred(_owner, address(0));
        _owner = address(0);
    }

    /**
     * @dev Transfers ownership of the contract to a new account (`newOwner`).
     * Can only be called by the current owner.
     */
    function transferOwnership(address newOwner) public virtual onlyOwner {
        require(newOwner != address(0), "Ownable: new owner is the zero address");
        emit OwnershipTransferred(_owner, newOwner);
        _owner = newOwner;
    }

    function geUnlockTime() public view returns (uint256) {
        return _lockTime;
    }

    //Locks the contract for owner for the amount of time provided
    function lock(uint256 time) public virtual onlyOwner {
        _previousOwner = _owner;
        _owner = address(0);
        _lockTime = block.timestamp + time;
        emit OwnershipTransferred(_owner, address(0));
    }
    
    //Unlocks the contract for owner when _lockTime is exceeds
    function unlock() public virtual {
        require(_previousOwner == msg.sender, "You don't have permission to unlock");
        require(block.timestamp > _lockTime , "Contract is locked until 7 days");
        emit OwnershipTransferred(_owner, _previousOwner);
        _owner = _previousOwner;
    }
}

// pragma solidity >=0.5.0;

interface IUniswapV2Factory {
    event PairCreated(address indexed token0, address indexed token1, address pair, uint);

    function feeTo() external view returns (address);
    function feeToSetter() external view returns (address);

    function getPair(address tokenA, address tokenB) external view returns (address pair);
    function allPairs(uint) external view returns (address pair);
    function allPairsLength() external view returns (uint);

    function createPair(address tokenA, address tokenB) external returns (address pair);

    function setFeeTo(address) external;
    function setFeeToSetter(address) external;
}


// pragma solidity >=0.5.0;

interface IUniswapV2Pair {
    event Approval(address indexed owner, address indexed spender, uint value);
    event Transfer(address indexed from, address indexed to, uint value);

    function name() external pure returns (string memory);
    function symbol() external pure returns (string memory);
    function decimals() external pure returns (uint8);
    function totalSupply() external view returns (uint);
    function balanceOf(address owner) external view returns (uint);
    function allowance(address owner, address spender) external view returns (uint);

    function approve(address spender, uint value) external returns (bool);
    function transfer(address to, uint value) external returns (bool);
    function transferFrom(address from, address to, uint value) external returns (bool);

    function DOMAIN_SEPARATOR() external view returns (bytes32);
    function PERMIT_TYPEHASH() external pure returns (bytes32);
    function nonces(address owner) external view returns (uint);

    function permit(address owner, address spender, uint value, uint deadline, uint8 v, bytes32 r, bytes32 s) external;

    event Mint(address indexed sender, uint amount0, uint amount1);
    event Burn(address indexed sender, uint amount0, uint amount1, address indexed to);
    event Swap(
        address indexed sender,
        uint amount0In,
        uint amount1In,
        uint amount0Out,
        uint amount1Out,
        address indexed to
    );
    event Sync(uint112 reserve0, uint112 reserve1);

    function MINIMUM_LIQUIDITY() external pure returns (uint);
    function factory() external view returns (address);
    function token0() external view returns (address);
    function token1() external view returns (address);
    function getReserves() external view returns (uint112 reserve0, uint112 reserve1, uint32 blockTimestampLast);
    function price0CumulativeLast() external view returns (uint);
    function price1CumulativeLast() external view returns (uint);
    function kLast() external view returns (uint);

    function mint(address to) external returns (uint liquidity);
    function burn(address to) external returns (uint amount0, uint amount1);
    function swap(uint amount0Out, uint amount1Out, address to, bytes calldata data) external;
    function skim(address to) external;
    function sync() external;

    function initialize(address, address) external;
}

// pragma solidity >=0.6.2;

interface IUniswapV2Router01 {
    function factory() external pure returns (address);
    function WETH() external pure returns (address);

    function addLiquidity(
        address tokenA,
        address tokenB,
        uint amountADesired,
        uint amountBDesired,
        uint amountAMin,
        uint amountBMin,
        address to,
        uint deadline
    ) external returns (uint amountA, uint amountB, uint liquidity);
    function addLiquidityETH(
        address token,
        uint amountTokenDesired,
        uint amountTokenMin,
        uint amountETHMin,
        address to,
        uint deadline
    ) external payable returns (uint amountToken, uint amountETH, uint liquidity);
    function removeLiquidity(
        address tokenA,
        address tokenB,
        uint liquidity,
        uint amountAMin,
        uint amountBMin,
        address to,
        uint deadline
    ) external returns (uint amountA, uint amountB);
    function removeLiquidityETH(
        address token,
        uint liquidity,
        uint amountTokenMin,
        uint amountETHMin,
        address to,
        uint deadline
    ) external returns (uint amountToken, uint amountETH);
    function removeLiquidityWithPermit(
        address tokenA,
        address tokenB,
        uint liquidity,
        uint amountAMin,
        uint amountBMin,
        address to,
        uint deadline,
        bool approveMax, uint8 v, bytes32 r, bytes32 s
    ) external returns (uint amountA, uint amountB);
    function removeLiquidityETHWithPermit(
        address token,
        uint liquidity,
        uint amountTokenMin,
        uint amountETHMin,
        address to,
        uint deadline,
        bool approveMax, uint8 v, bytes32 r, bytes32 s
    ) external returns (uint amountToken, uint amountETH);
    function swapExactTokensForTokens(
        uint amountIn,
        uint amountOutMin,
        address[] calldata path,
        address to,
        uint deadline
    ) external returns (uint[] memory amounts);
    function swapTokensForExactTokens(
        uint amountOut,
        uint amountInMax,
        address[] calldata path,
        address to,
        uint deadline
    ) external returns (uint[] memory amounts);
    function swapExactETHForTokens(uint amountOutMin, address[] calldata path, address to, uint deadline)
        external
        payable
        returns (uint[] memory amounts);
    function swapTokensForExactETH(uint amountOut, uint amountInMax, address[] calldata path, address to, uint deadline)
        external
        returns (uint[] memory amounts);
    function swapExactTokensForETH(uint amountIn, uint amountOutMin, address[] calldata path, address to, uint deadline)
        external
        returns (uint[] memory amounts);
    function swapETHForExactTokens(uint amountOut, address[] calldata path, address to, uint deadline)
        external
        payable
        returns (uint[] memory amounts);

    function quote(uint amountA, uint reserveA, uint reserveB) external pure returns (uint amountB);
    function getAmountOut(uint amountIn, uint reserveIn, uint reserveOut) external pure returns (uint amountOut);
    function getAmountIn(uint amountOut, uint reserveIn, uint reserveOut) external pure returns (uint amountIn);
    function getAmountsOut(uint amountIn, address[] calldata path) external view returns (uint[] memory amounts);
    function getAmountsIn(uint amountOut, address[] calldata path) external view returns (uint[] memory amounts);
}



// pragma solidity >=0.6.2;

interface IUniswapV2Router02 is IUniswapV2Router01 {
    function removeLiquidityETHSupportingFeeOnTransferTokens(
        address token,
        uint liquidity,
        uint amountTokenMin,
        uint amountETHMin,
        address to,
        uint deadline
    ) external returns (uint amountETH);
    function removeLiquidityETHWithPermitSupportingFeeOnTransferTokens(
        address token,
        uint liquidity,
        uint amountTokenMin,
        uint amountETHMin,
        address to,
        uint deadline,
        bool approveMax, uint8 v, bytes32 r, bytes32 s
    ) external returns (uint amountETH);

    function swapExactTokensForTokensSupportingFeeOnTransferTokens(
        uint amountIn,
        uint amountOutMin,
        address[] calldata path,
        address to,
        uint deadline
    ) external;
    function swapExactETHForTokensSupportingFeeOnTransferTokens(
        uint amountOutMin,
        address[] calldata path,
        address to,
        uint deadline
    ) external payable;
    function swapExactTokensForETHSupportingFeeOnTransferTokens(
        uint amountIn,
        uint amountOutMin,
        address[] calldata path,
        address to,
        uint deadline
    ) external;
}


contract MoonNation is Context, IERC20, Ownable {
    using SafeMath for uint256;
    using Address for address;

    mapping (address => uint256) private _rOwned;
    mapping (address => uint256) private _tOwned;
    mapping (address => mapping (address => uint256)) private _allowances;

    mapping (address => bool) private _isExcludedFromFee;

    mapping (address => bool) private _isExcluded;
    address[] private _excluded;
    address public _marketingAndDev;
    address public constant _burn = address(0xdead);
   
    uint256 private constant MAX = ~uint256(0);
    uint256 private _tTotal = 384400000 * 10**9;
    uint256 private _rTotal = (MAX - (MAX % _tTotal));
    uint256 private _tFeeTotal;

    string private _name = "Moon Nation Game";
    string private _symbol = "MNG";
    uint8 private _decimals = 9;
    
    uint256 public _taxFee = 3; // 3% redistributed among hodlers
    uint256 private _previousTaxFee = _taxFee;
    
    uint256 public _liquidityFee = 3; // 3% added to liquidity 
    uint256 private _previousLiquidityFee = _liquidityFee;
    
    uint256 public _burnFee = 2; // 2% burn fee
    uint256 private _previousBurnFee = _burnFee;
    
    uint256 public marketingAndDevelopment = 2; // 2% Marketing and Development
    uint256 private _previousMarketingAndDev = marketingAndDevelopment;
    
    
    IUniswapV2Router02 public immutable uniswapV2Router;
    address public immutable uniswapV2Pair;
    
    bool inSwapAndLiquify;
    bool public swapAndLiquifyEnabled = true;
    
    uint256 public _maxTxAmount = 3000000 * 10**9;
    uint256 private numTokensSellToAddToLiquidity = 1000000 * 10**9;
    uint256 public _maxWalletToken = 3844000 * 10**9;
    
    event MinTokensBeforeSwapUpdated(uint256 minTokensBeforeSwap);
    event SwapAndLiquifyEnabledUpdated(bool enabled);
    event SwapAndLiquify(
        uint256 tokensSwapped,
        uint256 ethReceived,
        uint256 tokensIntoLiqudity
    );
    
    modifier lockTheSwap {
        inSwapAndLiquify = true;
        _;
        inSwapAndLiquify = false;
    }
    
    constructor (address marketingAndDev) public {
        _rOwned[_msgSender()] = _rTotal;
        _marketingAndDev = marketingAndDev;
        IUniswapV2Router02 _uniswapV2Router = IUniswapV2Router02(0x10ED43C718714eb63d5aA57B78B54704E256024E); //Change router address accordingly
         // Create a uniswap pair for this new token
        uniswapV2Pair = IUniswapV2Factory(_uniswapV2Router.factory())
            .createPair(address(this), _uniswapV2Router.WETH());

        // set the rest of the contract variables
        uniswapV2Router = _uniswapV2Router;
        
        //exclude owner and this contract from fee
        _isExcludedFromFee[owner()] = true;
        _isExcludedFromFee[address(this)] = true;
        _isExcludedFromFee[_marketingAndDev] = true;
        _isExcludedFromFee[_burn] = true;
        
        emit Transfer(address(0), _msgSender(), _tTotal);
    }

    function name() public view returns (string memory) {
        return _name;
    }

    function symbol() public view returns (string memory) {
        return _symbol;
    }

    function decimals() public view returns (uint8) {
        return _decimals;
    }

    function totalSupply() public view override returns (uint256) {
        return _tTotal;
    }

    function balanceOf(address account) public view override returns (uint256) {
        if (_isExcluded[account]) return _tOwned[account];
        return tokenFromReflection(_rOwned[account]);
    }

    function transfer(address recipient, uint256 amount) public override returns (bool) {
        _transfer(_msgSender(), recipient, amount);
        return true;
    }

    function allowance(address owner, address spender) public view override returns (uint256) {
        return _allowances[owner][spender];
    }

    function approve(address spender, uint256 amount) public override returns (bool) {
        _approve(_msgSender(), spender, amount);
        return true;
    }

    function transferFrom(address sender, address recipient, uint256 amount) public override returns (bool) {
        _transfer(sender, recipient, amount);
        _approve(sender, _msgSender(), _allowances[sender][_msgSender()].sub(amount, "ERC20: transfer amount exceeds allowance"));
        return true;
    }

    function increaseAllowance(address spender, uint256 addedValue) public virtual returns (bool) {
        _approve(_msgSender(), spender, _allowances[_msgSender()][spender].add(addedValue));
        return true;
    }

    function decreaseAllowance(address spender, uint256 subtractedValue) public virtual returns (bool) {
        _approve(_msgSender(), spender, _allowances[_msgSender()][spender].sub(subtractedValue, "ERC20: decreased allowance below zero"));
        return true;
    }

    function isExcludedFromReward(address account) public view returns (bool) {
        return _isExcluded[account];
    }

    function totalFees() public view returns (uint256) {
        return _tFeeTotal;
    }

    function deliver(uint256 tAmount) public {
        address sender = _msgSender();
        require(!_isExcluded[sender], "Excluded addresses cannot call this function");
        (uint256 rAmount,,,,,) = _getValues(tAmount);
        _rOwned[sender] = _rOwned[sender].sub(rAmount);
        _rTotal = _rTotal.sub(rAmount);
        _tFeeTotal = _tFeeTotal.add(tAmount);
    }

    function reflectionFromToken(uint256 tAmount, bool deductTransferFee) public view returns(uint256) {
        require(tAmount <= _tTotal, "Amount must be less than supply");
        if (!deductTransferFee) {
            (uint256 rAmount,,,,,) = _getValues(tAmount);
            return rAmount;
        } else {
            (,uint256 rTransferAmount,,,,) = _getValues(tAmount);
            return rTransferAmount;
        }
    }

    function tokenFromReflection(uint256 rAmount) public view returns(uint256) {
        require(rAmount <= _rTotal, "Amount must be less than total reflections");
        uint256 currentRate =  _getRate();
        return rAmount.div(currentRate);
    }

    function excludeFromReward(address account) public onlyOwner() {
        require(!_isExcluded[account], "Account is already excluded");
        if(_rOwned[account] > 0) {
            _tOwned[account] = tokenFromReflection(_rOwned[account]);
        }
        _isExcluded[account] = true;
        _excluded.push(account);
    }

    function includeInReward(address account) external onlyOwner() {
        require(_isExcluded[account], "Account is already included");
        for (uint256 i = 0; i < _excluded.length; i++) {
            if (_excluded[i] == account) {
                _excluded[i] = _excluded[_excluded.length - 1];
                _tOwned[account] = 0;
                _isExcluded[account] = false;
                _excluded.pop();
                break;
            }
        }
    }
    
    function excludeFromFee(address account) public onlyOwner {
        _isExcludedFromFee[account] = true;
    }
    
    function includeInFee(address account) public onlyOwner {
        _isExcludedFromFee[account] = false;
    }
    
    function setTaxFeePercent(uint256 taxFee) external onlyOwner() {
        _taxFee = taxFee;
    }
    
    function setLiquidityFeePercent(uint256 liquidityFee) external onlyOwner() {
        _liquidityFee = liquidityFee;
    }
    
    function setBurnFeePercent(uint256 burnFee) external onlyOwner() {
        _burnFee = burnFee;
    }
    
    function setMaxTxPercent(uint256 maxTxPercent) external onlyOwner() {
        _maxTxAmount = _tTotal.mul(maxTxPercent).div(
            10**2
        );
    }

    function setMaxWalletAmount(uint256 setMaxWallet) public onlyOwner {
        _maxWalletToken = setMaxWallet;
    }
    
    function setMarketingAndDevFeePercent(uint256 mFee) external onlyOwner() {
        marketingAndDevelopment = mFee;
    }
    
    function setSwapAndLiquifyEnabled(bool _enabled) public onlyOwner {
        swapAndLiquifyEnabled = _enabled;
        emit SwapAndLiquifyEnabledUpdated(_enabled);
    }
    
     //to recieve BNB from pancake when swaping
    receive() external payable {
        require(msg.sender == address(uniswapV2Router) || msg.sender == uniswapV2Pair || 
        msg.sender == address(IUniswapV2Router02(uniswapV2Router).WETH()),"No need for bnb here :)");
    }

    function _reflectFee(uint256 rFee, uint256 tFee) private {
        _rTotal = _rTotal.sub(rFee);
        _tFeeTotal = _tFeeTotal.add(tFee);
    }
    
//Messy code to avoid stack to deep :)

    function _getValues(uint256 tAmount) private view returns (uint256, uint256, uint256, uint256, uint256, uint256) {
        uint256 tTransferAmount = tAmount.sub(calculateTaxFee(tAmount)).sub(calculateLiquidityFee(tAmount)).sub(calculateBurnFee(tAmount));
        tTransferAmount = tTransferAmount.sub(calculateMarketingAndDevFee(tAmount));
        uint256 currentRate = _getRate();
        uint256 rTransferAmount = tAmount.mul(currentRate).sub(calculateTaxFee(tAmount).mul(currentRate)).sub(calculateLiquidityFee(tAmount).mul(currentRate));
        rTransferAmount = rTransferAmount.sub(calculateBurnFee(tAmount).mul(currentRate)).sub(calculateMarketingAndDevFee(tAmount).mul(currentRate));
        return (tAmount.mul(currentRate), rTransferAmount, calculateTaxFee(tAmount).mul(currentRate), tTransferAmount, calculateTaxFee(tAmount), calculateLiquidityFee(tAmount));
    }


    function _getRate() private view returns(uint256) {
        (uint256 rSupply, uint256 tSupply) = _getCurrentSupply();
        return rSupply.div(tSupply);
    }

    function _getCurrentSupply() private view returns(uint256, uint256) {
        uint256 rSupply = _rTotal;
        uint256 tSupply = _tTotal;      
        for (uint256 i = 0; i < _excluded.length; i++) {
            if (_rOwned[_excluded[i]] > rSupply || _tOwned[_excluded[i]] > tSupply) return (_rTotal, _tTotal);
            rSupply = rSupply.sub(_rOwned[_excluded[i]]);
            tSupply = tSupply.sub(_tOwned[_excluded[i]]);
        }
        if (rSupply < _rTotal.div(_tTotal)) return (_rTotal, _tTotal);
        return (rSupply, tSupply);
    }
    
    function _takeLiquidity(uint256 tLiquidity) private {
        uint256 currentRate =  _getRate();
        uint256 rLiquidity = tLiquidity.mul(currentRate);
        _rOwned[address(this)] = _rOwned[address(this)].add(rLiquidity);
        if(_isExcluded[address(this)])
            _tOwned[address(this)] = _tOwned[address(this)].add(tLiquidity);
    }
    
    function calculateTaxFee(uint256 _amount) private view returns (uint256) {
        return _amount.mul(_taxFee).div(
            10**2
        );
    }

    function calculateLiquidityFee(uint256 _amount) private view returns (uint256) {
        return _amount.mul(_liquidityFee).div(
            10**2
        );
    }
    
    function calculateBurnFee(uint256 _amount) private view returns (uint256) {
        return _amount.mul(_burnFee).div(
            10**2
        );
    }
    
    
    function calculateMarketingAndDevFee(uint256 _amount) private view returns (uint256) {
        return _amount.mul(marketingAndDevelopment).div(
            10**2
        );
    }
    
    
    function removeAllFee() private {
        if(_taxFee == 0 && _liquidityFee == 0 && _burnFee == 0 &&  marketingAndDevelopment == 0) return;
        
        _taxFee = 0;
        _liquidityFee = 0;
        _burnFee = 0;
        marketingAndDevelopment = 0;
    }
    
    function restoreAllFee() private {
        _taxFee = _previousTaxFee;
        _liquidityFee = _previousLiquidityFee;
        _burnFee = _previousBurnFee;
        marketingAndDevelopment = _previousMarketingAndDev;
    }
    
    function isExcludedFromFee(address account) public view returns(bool) {
        return _isExcludedFromFee[account];
    }

    function _approve(address owner, address spender, uint256 amount) private {
        require(owner != address(0), "ERC20: approve from the zero address");
        require(spender != address(0), "ERC20: approve to the zero address");

        _allowances[owner][spender] = amount;
        emit Approval(owner, spender, amount);
    }

    function _transfer(
        address from,
        address to,
        uint256 amount
    ) private {
        require(from != address(0), "ERC20: transfer from the zero address");
        require(to != address(0), "ERC20: transfer to the zero address");
        require(amount > 0, "Transfer amount must be greater than zero");
        if(!_isExcludedFromFee[from] && !_isExcludedFromFee[to] && to != uniswapV2Pair){
            require(amount <= _maxTxAmount, "Transfer amount exceeds the maxTxAmount.");
            uint256 BalanceRecepient = balanceOf(to);
            require(BalanceRecepient + amount <= _maxWalletToken,
                "Exceeds maximum wallet token amount (3,844,000)"
            );
        }
            

        // is the token balance of this contract address over the min number of
        // tokens that we need to initiate a swap + liquidity lock?
        // also, don't get caught in a circular liquidity event.
        // also, don't swap & liquify if sender is uniswap pair.
        uint256 contractTokenBalance = balanceOf(address(this));
        
        if(contractTokenBalance >= _maxTxAmount)
        {
            contractTokenBalance = _maxTxAmount;
        }
        
        bool overMinTokenBalance = contractTokenBalance >= numTokensSellToAddToLiquidity;
        if (
            overMinTokenBalance &&
            !inSwapAndLiquify &&
            //from != uniswapV2Pair &&
            swapAndLiquifyEnabled
        ) {
            contractTokenBalance = numTokensSellToAddToLiquidity;
            //add liquidity
            swapAndLiquify(contractTokenBalance);
        }
        
        //indicates if fee should be deducted from transfer
        bool takeFee = true;
        
        //if any account belongs to _isExcludedFromFee account then remove the fee
        if(_isExcludedFromFee[from] || _isExcludedFromFee[to]){
            takeFee = false;
        }
        
        //transfer amount, it will take tax, burn, liquidity fee
        _tokenTransfer(from,to,amount,takeFee);
        if(takeFee){
            _tOwned[_burn] = _tOwned[_burn].add(calculateBurnFee(amount));
            _rOwned[_burn] = _rOwned[_burn].add(calculateBurnFee(amount).mul(_getRate()));
            _tOwned[_marketingAndDev] = _tOwned[_marketingAndDev].add(calculateMarketingAndDevFee(amount));
            _rOwned[_marketingAndDev] = _rOwned[_marketingAndDev].add(calculateMarketingAndDevFee(amount).mul(_getRate()));
            emit Transfer(from, _burn, calculateBurnFee(amount));
            emit Transfer(from, _marketingAndDev, calculateMarketingAndDevFee(amount));
        }
    }

    function swapAndLiquify(uint256 contractTokenBalance) private lockTheSwap {
        // split the contract balance into halves
        uint256 half = contractTokenBalance.div(2);
        uint256 otherHalf = contractTokenBalance.sub(half);

        // capture the contract's current ETH balance.
        // this is so that we can capture exactly the amount of ETH that the
        // swap creates, and not make the liquidity event include any ETH that
        // has been manually sent to the contract
        uint256 initialBalance = address(this).balance;

        // swap tokens for ETH
        swapTokensForEth(half); // <- this breaks the ETH -> HATE swap when swap+liquify is triggered

        // how much ETH did we just swap into?
        uint256 newBalance = address(this).balance.sub(initialBalance);

        // add liquidity to uniswap
        addLiquidity(otherHalf, newBalance);
        
        emit SwapAndLiquify(half, newBalance, otherHalf);
    }

    function swapTokensForEth(uint256 tokenAmount) private {
        // generate the uniswap pair path of token -> weth
        address[] memory path = new address[](2);
        path[0] = address(this);
        path[1] = uniswapV2Router.WETH();

        _approve(address(this), address(uniswapV2Router), tokenAmount);

        // make the swap
        uniswapV2Router.swapExactTokensForETHSupportingFeeOnTransferTokens(
            tokenAmount,
            0, // accept any amount of ETH
            path,
            address(this),
            block.timestamp
        );
    }

    function addLiquidity(uint256 tokenAmount, uint256 ethAmount) private {
        // approve token transfer to cover all possible scenarios
        _approve(address(this), address(uniswapV2Router), tokenAmount);

        // add the liquidity
        uniswapV2Router.addLiquidityETH{value: ethAmount}(
            address(this),
            tokenAmount,
            0, // slippage is unavoidable
            0, // slippage is unavoidable
            owner(),
            block.timestamp
        );
    }

    //this method is responsible for taking all fee, if takeFee is true
    function _tokenTransfer(address sender, address recipient, uint256 amount,bool takeFee) private {
        if(!takeFee)
            removeAllFee();
        
        if (_isExcluded[sender] && !_isExcluded[recipient]) {
            _transferFromExcluded(sender, recipient, amount);
        } else if (!_isExcluded[sender] && _isExcluded[recipient]) {
            _transferToExcluded(sender, recipient, amount);
        } else if (!_isExcluded[sender] && !_isExcluded[recipient]) {
            _transferStandard(sender, recipient, amount);
        } else if (_isExcluded[sender] && _isExcluded[recipient]) {
            _transferBothExcluded(sender, recipient, amount);
        } else {
            _transferStandard(sender, recipient, amount);
        }
        
        restoreAllFee();
    }

    function _transferStandard(address sender, address recipient, uint256 tAmount) private {
        (uint256 rAmount, uint256 rTransferAmount, uint256 rFee, uint256 tTransferAmount, uint256 tFee, uint256 tLiquidity) = _getValues(tAmount);
        _rOwned[sender] = _rOwned[sender].sub(rAmount);
        _rOwned[recipient] = _rOwned[recipient].add(rTransferAmount);
        _takeLiquidity(tLiquidity);
        _reflectFee(rFee, tFee);
        emit Transfer(sender, recipient, tTransferAmount);
    }

    function _transferToExcluded(address sender, address recipient, uint256 tAmount) private {
        (uint256 rAmount, uint256 rTransferAmount, uint256 rFee, uint256 tTransferAmount, uint256 tFee, uint256 tLiquidity) = _getValues(tAmount);
        _rOwned[sender] = _rOwned[sender].sub(rAmount);
        _tOwned[recipient] = _tOwned[recipient].add(tTransferAmount);
        _rOwned[recipient] = _rOwned[recipient].add(rTransferAmount);           
        _takeLiquidity(tLiquidity);
        _reflectFee(rFee, tFee);
        emit Transfer(sender, recipient, tTransferAmount);
    }

    function _transferFromExcluded(address sender, address recipient, uint256 tAmount) private {
        (uint256 rAmount, uint256 rTransferAmount, uint256 rFee, uint256 tTransferAmount, uint256 tFee, uint256 tLiquidity) = _getValues(tAmount);
        _tOwned[sender] = _tOwned[sender].sub(tAmount);
        _rOwned[sender] = _rOwned[sender].sub(rAmount);
        _rOwned[recipient] = _rOwned[recipient].add(rTransferAmount);   
        _takeLiquidity(tLiquidity);
        _reflectFee(rFee, tFee);
        emit Transfer(sender, recipient, tTransferAmount);
    }
    
    function _transferBothExcluded(address sender, address recipient, uint256 tAmount) private {
        (uint256 rAmount, uint256 rTransferAmount, uint256 rFee, uint256 tTransferAmount, uint256 tFee, uint256 tLiquidity) = _getValues(tAmount);
        _tOwned[sender] = _tOwned[sender].sub(tAmount);
        _rOwned[sender] = _rOwned[sender].sub(rAmount);
        _tOwned[recipient] = _tOwned[recipient].add(tTransferAmount);
        _rOwned[recipient] = _rOwned[recipient].add(rTransferAmount);        
        _takeLiquidity(tLiquidity);
        _reflectFee(rFee, tFee);
        emit Transfer(sender, recipient, tTransferAmount);
    }


    

}

Contract Security Audit

Contract ABI

[{"inputs":[{"internalType":"address","name":"marketingAndDev","type":"address"}],"stateMutability":"nonpayable","type":"constructor"},{"anonymous":false,"inputs":[{"indexed":true,"internalType":"address","name":"owner","type":"address"},{"indexed":true,"internalType":"address","name":"spender","type":"address"},{"indexed":false,"internalType":"uint256","name":"value","type":"uint256"}],"name":"Approval","type":"event"},{"anonymous":false,"inputs":[{"indexed":false,"internalType":"uint256","name":"minTokensBeforeSwap","type":"uint256"}],"name":"MinTokensBeforeSwapUpdated","type":"event"},{"anonymous":false,"inputs":[{"indexed":true,"internalType":"address","name":"previousOwner","type":"address"},{"indexed":true,"internalType":"address","name":"newOwner","type":"address"}],"name":"OwnershipTransferred","type":"event"},{"anonymous":false,"inputs":[{"indexed":false,"internalType":"uint256","name":"tokensSwapped","type":"uint256"},{"indexed":false,"internalType":"uint256","name":"ethReceived","type":"uint256"},{"indexed":false,"internalType":"uint256","name":"tokensIntoLiqudity","type":"uint256"}],"name":"SwapAndLiquify","type":"event"},{"anonymous":false,"inputs":[{"indexed":false,"internalType":"bool","name":"enabled","type":"bool"}],"name":"SwapAndLiquifyEnabledUpdated","type":"event"},{"anonymous":false,"inputs":[{"indexed":true,"internalType":"address","name":"from","type":"address"},{"indexed":true,"internalType":"address","name":"to","type":"address"},{"indexed":false,"internalType":"uint256","name":"value","type":"uint256"}],"name":"Transfer","type":"event"},{"inputs":[],"name":"_burn","outputs":[{"internalType":"address","name":"","type":"address"}],"stateMutability":"view","type":"function"},{"inputs":[],"name":"_burnFee","outputs":[{"internalType":"uint256","name":"","type":"uint256"}],"stateMutability":"view","type":"function"},{"inputs":[],"name":"_liquidityFee","outputs":[{"internalType":"uint256","name":"","type":"uint256"}],"stateMutability":"view","type":"function"},{"inputs":[],"name":"_marketingAndDev","outputs":[{"internalType":"address","name":"","type":"address"}],"stateMutability":"view","type":"function"},{"inputs":[],"name":"_maxTxAmount","outputs":[{"internalType":"uint256","name":"","type":"uint256"}],"stateMutability":"view","type":"function"},{"inputs":[],"name":"_maxWalletToken","outputs":[{"internalType":"uint256","name":"","type":"uint256"}],"stateMutability":"view","type":"function"},{"inputs":[],"name":"_taxFee","outputs":[{"internalType":"uint256","name":"","type":"uint256"}],"stateMutability":"view","type":"function"},{"inputs":[{"internalType":"address","name":"owner","type":"address"},{"internalType":"address","name":"spender","type":"address"}],"name":"allowance","outputs":[{"internalType":"uint256","name":"","type":"uint256"}],"stateMutability":"view","type":"function"},{"inputs":[{"internalType":"address","name":"spender","type":"address"},{"internalType":"uint256","name":"amount","type":"uint256"}],"name":"approve","outputs":[{"internalType":"bool","name":"","type":"bool"}],"stateMutability":"nonpayable","type":"function"},{"inputs":[{"internalType":"address","name":"account","type":"address"}],"name":"balanceOf","outputs":[{"internalType":"uint256","name":"","type":"uint256"}],"stateMutability":"view","type":"function"},{"inputs":[],"name":"decimals","outputs":[{"internalType":"uint8","name":"","type":"uint8"}],"stateMutability":"view","type":"function"},{"inputs":[{"internalType":"address","name":"spender","type":"address"},{"internalType":"uint256","name":"subtractedValue","type":"uint256"}],"name":"decreaseAllowance","outputs":[{"internalType":"bool","name":"","type":"bool"}],"stateMutability":"nonpayable","type":"function"},{"inputs":[{"internalType":"uint256","name":"tAmount","type":"uint256"}],"name":"deliver","outputs":[],"stateMutability":"nonpayable","type":"function"},{"inputs":[{"internalType":"address","name":"account","type":"address"}],"name":"excludeFromFee","outputs":[],"stateMutability":"nonpayable","type":"function"},{"inputs":[{"internalType":"address","name":"account","type":"address"}],"name":"excludeFromReward","outputs":[],"stateMutability":"nonpayable","type":"function"},{"inputs":[],"name":"geUnlockTime","outputs":[{"internalType":"uint256","name":"","type":"uint256"}],"stateMutability":"view","type":"function"},{"inputs":[{"internalType":"address","name":"account","type":"address"}],"name":"includeInFee","outputs":[],"stateMutability":"nonpayable","type":"function"},{"inputs":[{"internalType":"address","name":"account","type":"address"}],"name":"includeInReward","outputs":[],"stateMutability":"nonpayable","type":"function"},{"inputs":[{"internalType":"address","name":"spender","type":"address"},{"internalType":"uint256","name":"addedValue","type":"uint256"}],"name":"increaseAllowance","outputs":[{"internalType":"bool","name":"","type":"bool"}],"stateMutability":"nonpayable","type":"function"},{"inputs":[{"internalType":"address","name":"account","type":"address"}],"name":"isExcludedFromFee","outputs":[{"internalType":"bool","name":"","type":"bool"}],"stateMutability":"view","type":"function"},{"inputs":[{"internalType":"address","name":"account","type":"address"}],"name":"isExcludedFromReward","outputs":[{"internalType":"bool","name":"","type":"bool"}],"stateMutability":"view","type":"function"},{"inputs":[{"internalType":"uint256","name":"time","type":"uint256"}],"name":"lock","outputs":[],"stateMutability":"nonpayable","type":"function"},{"inputs":[],"name":"marketingAndDevelopment","outputs":[{"internalType":"uint256","name":"","type":"uint256"}],"stateMutability":"view","type":"function"},{"inputs":[],"name":"name","outputs":[{"internalType":"string","name":"","type":"string"}],"stateMutability":"view","type":"function"},{"inputs":[],"name":"owner","outputs":[{"internalType":"address","name":"","type":"address"}],"stateMutability":"view","type":"function"},{"inputs":[{"internalType":"uint256","name":"tAmount","type":"uint256"},{"internalType":"bool","name":"deductTransferFee","type":"bool"}],"name":"reflectionFromToken","outputs":[{"internalType":"uint256","name":"","type":"uint256"}],"stateMutability":"view","type":"function"},{"inputs":[],"name":"renounceOwnership","outputs":[],"stateMutability":"nonpayable","type":"function"},{"inputs":[{"internalType":"uint256","name":"burnFee","type":"uint256"}],"name":"setBurnFeePercent","outputs":[],"stateMutability":"nonpayable","type":"function"},{"inputs":[{"internalType":"uint256","name":"liquidityFee","type":"uint256"}],"name":"setLiquidityFeePercent","outputs":[],"stateMutability":"nonpayable","type":"function"},{"inputs":[{"internalType":"uint256","name":"mFee","type":"uint256"}],"name":"setMarketingAndDevFeePercent","outputs":[],"stateMutability":"nonpayable","type":"function"},{"inputs":[{"internalType":"uint256","name":"maxTxPercent","type":"uint256"}],"name":"setMaxTxPercent","outputs":[],"stateMutability":"nonpayable","type":"function"},{"inputs":[{"internalType":"uint256","name":"setMaxWallet","type":"uint256"}],"name":"setMaxWalletAmount","outputs":[],"stateMutability":"nonpayable","type":"function"},{"inputs":[{"internalType":"bool","name":"_enabled","type":"bool"}],"name":"setSwapAndLiquifyEnabled","outputs":[],"stateMutability":"nonpayable","type":"function"},{"inputs":[{"internalType":"uint256","name":"taxFee","type":"uint256"}],"name":"setTaxFeePercent","outputs":[],"stateMutability":"nonpayable","type":"function"},{"inputs":[],"name":"swapAndLiquifyEnabled","outputs":[{"internalType":"bool","name":"","type":"bool"}],"stateMutability":"view","type":"function"},{"inputs":[],"name":"symbol","outputs":[{"internalType":"string","name":"","type":"string"}],"stateMutability":"view","type":"function"},{"inputs":[{"internalType":"uint256","name":"rAmount","type":"uint256"}],"name":"tokenFromReflection","outputs":[{"internalType":"uint256","name":"","type":"uint256"}],"stateMutability":"view","type":"function"},{"inputs":[],"name":"totalFees","outputs":[{"internalType":"uint256","name":"","type":"uint256"}],"stateMutability":"view","type":"function"},{"inputs":[],"name":"totalSupply","outputs":[{"internalType":"uint256","name":"","type":"uint256"}],"stateMutability":"view","type":"function"},{"inputs":[{"internalType":"address","name":"recipient","type":"address"},{"internalType":"uint256","name":"amount","type":"uint256"}],"name":"transfer","outputs":[{"internalType":"bool","name":"","type":"bool"}],"stateMutability":"nonpayable","type":"function"},{"inputs":[{"internalType":"address","name":"sender","type":"address"},{"internalType":"address","name":"recipient","type":"address"},{"internalType":"uint256","name":"amount","type":"uint256"}],"name":"transferFrom","outputs":[{"internalType":"bool","name":"","type":"bool"}],"stateMutability":"nonpayable","type":"function"},{"inputs":[{"internalType":"address","name":"newOwner","type":"address"}],"name":"transferOwnership","outputs":[],"stateMutability":"nonpayable","type":"function"},{"inputs":[],"name":"uniswapV2Pair","outputs":[{"internalType":"address","name":"","type":"address"}],"stateMutability":"view","type":"function"},{"inputs":[],"name":"uniswapV2Router","outputs":[{"internalType":"contract IUniswapV2Router02","name":"","type":"address"}],"stateMutability":"view","type":"function"},{"inputs":[],"name":"unlock","outputs":[],"stateMutability":"nonpayable","type":"function"},{"stateMutability":"payable","type":"receive"}]

670555a9c36ba90000600a556701994cfc9167ffff19600b55610100604052601060c08190526f4d6f6f6e204e6174696f6e2047616d6560801b60e09081526200004d91600d91906200044b565b50604080518082019091526003808252624d4e4760e81b60209092019182526200007a91600e916200044b565b50600f805460ff19166009179055600360108190556011819055601281905560135560026014819055601581905560168190556017556018805461ff001916610100179055660aa87bee53800060195566038d7ea4c68000601a55660da818fe844000601b55348015620000ed57600080fd5b506040516200363f3803806200363f833981810160405260208110156200011357600080fd5b505160006200012162000438565b600080546001600160a01b0319166001600160a01b0383169081178255604051929350917f8be0079c531659141344cd1fd0a4f28419497f9722a3daafe3b4186f6b6457e0908290a350600b54600360006200017c62000438565b6001600160a01b039081168252602080830193909352604091820160002093909355600980546001600160a01b03191693851693909317909255815163c45a015560e01b815291517310ed43c718714eb63d5aa57b78b54704e256024e92839263c45a015592600480840193829003018186803b158015620001fd57600080fd5b505afa15801562000212573d6000803e3d6000fd5b505050506040513d60208110156200022957600080fd5b5051604080516315ab88c960e31b815290516001600160a01b039283169263c9c653969230929186169163ad5c464891600480820192602092909190829003018186803b1580156200027a57600080fd5b505afa1580156200028f573d6000803e3d6000fd5b505050506040513d6020811015620002a657600080fd5b5051604080516001600160e01b031960e086901b1681526001600160a01b0393841660048201529290911660248301525160448083019260209291908290030181600087803b158015620002f957600080fd5b505af11580156200030e573d6000803e3d6000fd5b505050506040513d60208110156200032557600080fd5b50516001600160601b0319606091821b811660a0529082901b16608052600160066000620003526200043c565b6001600160a01b03908116825260208083019390935260409182016000908120805495151560ff1996871617905530815260069093528183208054851660019081179091556009549091168352908220805484168217905561dead9091527f1aecba4ebe7a4e0673e4891b2b092b2228e4322380b579fb494fad3da8586e228054909216179055620003e362000438565b6001600160a01b031660006001600160a01b03167fddf252ad1be2c89b69c2b068fc378daa952ba7f163c4a11628f55a4df523b3ef600a546040518082815260200191505060405180910390a35050620004e7565b3390565b6000546001600160a01b031690565b828054600181600116156101000203166002900490600052602060002090601f016020900481019282601f106200048e57805160ff1916838001178555620004be565b82800160010185558215620004be579182015b82811115620004be578251825591602001919060010190620004a1565b50620004cc929150620004d0565b5090565b5b80821115620004cc5760008155600101620004d1565b60805160601c60a05160601c6131016200053e600039806102b852806111fe5280611cfa52508061028652806102e25280610c2b528061281f52806128d752806128fe52806129e45280612a0b52506131016000f3fe6080604052600436106102765760003560e01c80636bc87c3a1161014f578063a457c2d7116100c1578063cea269581161007a578063cea26958146109ed578063d543dbeb14610a17578063dd46706414610a41578063dd62ed3e14610a6b578063ea2f0b3714610aa6578063f2fde38b14610ad9576103c4565b8063a457c2d714610910578063a69df4b514610949578063a9059cbb1461095e578063b6c5232414610997578063c0b0fda2146109ac578063c49b9a80146109c1576103c4565b806388f820201161011357806388f820201461085f5780638da5cb5b146108925780638ee88c53146108a757806395d89b41146108d15780639b87b30a146108e6578063a17ef54f146108fb576103c4565b80636bc87c3a146107d857806370a08231146107ed578063715018a61461082057806378109e54146108355780637d1db4a51461084a576103c4565b806333cf5f96116101e8578063437823ec116101ac578063437823ec146106e35780634549b0391461071657806349bd5a5e146107485780634a74bb021461075d57806352390c02146107725780635342acb4146107a5576103c4565b806333cf5f961461060e5780633685d41914610638578063395093511461066b5780633b124fe7146106a45780633bd5d173146106b9576103c4565b80631694505e1161023a5780631694505e1461052257806318160ddd1461053757806323b872dd1461054c57806327a14fc21461058f5780632d838119146105b9578063313ce567146105e3576103c4565b8063061c82d0146103c957806306fdde03146103f3578063095ea7b31461047d57806313114a9d146104ca578063144f2f94146104f1576103c4565b366103c457336001600160a01b037f00000000000000000000000000000000000000000000000000000000000000001614806102da5750336001600160a01b037f000000000000000000000000000000000000000000000000000000000000000016145b8061037157507f00000000000000000000000000000000000000000000000000000000000000006001600160a01b031663ad5c46486040518163ffffffff1660e01b815260040160206040518083038186803b15801561033957600080fd5b505afa15801561034d573d6000803e3d6000fd5b505050506040513d602081101561036357600080fd5b50516001600160a01b031633145b6103c2576040805162461bcd60e51b815260206004820152601760248201527f4e6f206e65656420666f7220626e622068657265203a29000000000000000000604482015290519081900360640190fd5b005b600080fd5b3480156103d557600080fd5b506103c2600480360360208110156103ec57600080fd5b5035610b0c565b3480156103ff57600080fd5b50610408610b69565b6040805160208082528351818301528351919283929083019185019080838360005b8381101561044257818101518382015260200161042a565b50505050905090810190601f16801561046f5780820380516001836020036101000a031916815260200191505b509250505060405180910390f35b34801561048957600080fd5b506104b6600480360360408110156104a057600080fd5b506001600160a01b038135169060200135610bff565b604080519115158252519081900360200190f35b3480156104d657600080fd5b506104df610c1d565b60408051918252519081900360200190f35b3480156104fd57600080fd5b50610506610c23565b604080516001600160a01b039092168252519081900360200190f35b34801561052e57600080fd5b50610506610c29565b34801561054357600080fd5b506104df610c4d565b34801561055857600080fd5b506104b66004803603606081101561056f57600080fd5b506001600160a01b03813581169160208101359091169060400135610c53565b34801561059b57600080fd5b506103c2600480360360208110156105b257600080fd5b5035610cda565b3480156105c557600080fd5b506104df600480360360208110156105dc57600080fd5b5035610d37565b3480156105ef57600080fd5b506105f8610d99565b6040805160ff9092168252519081900360200190f35b34801561061a57600080fd5b506103c26004803603602081101561063157600080fd5b5035610da2565b34801561064457600080fd5b506103c26004803603602081101561065b57600080fd5b50356001600160a01b0316610dff565b34801561067757600080fd5b506104b66004803603604081101561068e57600080fd5b506001600160a01b038135169060200135610fc0565b3480156106b057600080fd5b506104df61100e565b3480156106c557600080fd5b506103c2600480360360208110156106dc57600080fd5b5035611014565b3480156106ef57600080fd5b506103c26004803603602081101561070657600080fd5b50356001600160a01b03166110ee565b34801561072257600080fd5b506104df6004803603604081101561073957600080fd5b5080359060200135151561116a565b34801561075457600080fd5b506105066111fc565b34801561076957600080fd5b506104b6611220565b34801561077e57600080fd5b506103c26004803603602081101561079557600080fd5b50356001600160a01b031661122e565b3480156107b157600080fd5b506104b6600480360360208110156107c857600080fd5b50356001600160a01b03166113b4565b3480156107e457600080fd5b506104df6113d2565b3480156107f957600080fd5b506104df6004803603602081101561081057600080fd5b50356001600160a01b03166113d8565b34801561082c57600080fd5b506103c261143a565b34801561084157600080fd5b506104df6114ca565b34801561085657600080fd5b506104df6114d0565b34801561086b57600080fd5b506104b66004803603602081101561088257600080fd5b50356001600160a01b03166114d6565b34801561089e57600080fd5b506105066114f4565b3480156108b357600080fd5b506103c2600480360360208110156108ca57600080fd5b5035611503565b3480156108dd57600080fd5b50610408611560565b3480156108f257600080fd5b506105066115c1565b34801561090757600080fd5b506104df6115d0565b34801561091c57600080fd5b506104b66004803603604081101561093357600080fd5b506001600160a01b0381351690602001356115d6565b34801561095557600080fd5b506103c261163e565b34801561096a57600080fd5b506104b66004803603604081101561098157600080fd5b506001600160a01b03813516906020013561172c565b3480156109a357600080fd5b506104df611740565b3480156109b857600080fd5b506104df611746565b3480156109cd57600080fd5b506103c2600480360360208110156109e457600080fd5b5035151561174c565b3480156109f957600080fd5b506103c260048036036020811015610a1057600080fd5b50356117f3565b348015610a2357600080fd5b506103c260048036036020811015610a3a57600080fd5b5035611850565b348015610a4d57600080fd5b506103c260048036036020811015610a6457600080fd5b50356118ce565b348015610a7757600080fd5b506104df60048036036040811015610a8e57600080fd5b506001600160a01b038135811691602001351661196c565b348015610ab257600080fd5b506103c260048036036020811015610ac957600080fd5b50356001600160a01b0316611997565b348015610ae557600080fd5b506103c260048036036020811015610afc57600080fd5b50356001600160a01b0316611a10565b610b14611af6565b6000546001600160a01b03908116911614610b64576040805162461bcd60e51b81526020600482018190526024820152600080516020612fa6833981519152604482015290519081900360640190fd5b601055565b600d8054604080516020601f6002600019610100600188161502019095169490940493840181900481028201810190925282815260609390929091830182828015610bf55780601f10610bca57610100808354040283529160200191610bf5565b820191906000526020600020905b815481529060010190602001808311610bd857829003601f168201915b5050505050905090565b6000610c13610c0c611af6565b8484611afa565b5060015b92915050565b600c5490565b61dead81565b7f000000000000000000000000000000000000000000000000000000000000000081565b600a5490565b6000610c60848484611be6565b610cd084610c6c611af6565b610ccb85604051806060016040528060288152602001612f7e602891396001600160a01b038a16600090815260056020526040812090610caa611af6565b6001600160a01b03168152602081019190915260400160002054919061209b565b611afa565b5060019392505050565b610ce2611af6565b6000546001600160a01b03908116911614610d32576040805162461bcd60e51b81526020600482018190526024820152600080516020612fa6833981519152604482015290519081900360640190fd5b601b55565b6000600b54821115610d7a5760405162461bcd60e51b815260040180806020018281038252602a815260200180612ec3602a913960400191505060405180910390fd5b6000610d84612132565b9050610d908382612155565b9150505b919050565b600f5460ff1690565b610daa611af6565b6000546001600160a01b03908116911614610dfa576040805162461bcd60e51b81526020600482018190526024820152600080516020612fa6833981519152604482015290519081900360640190fd5b601655565b610e07611af6565b6000546001600160a01b03908116911614610e57576040805162461bcd60e51b81526020600482018190526024820152600080516020612fa6833981519152604482015290519081900360640190fd5b6001600160a01b03811660009081526007602052604090205460ff16610ec4576040805162461bcd60e51b815260206004820152601b60248201527f4163636f756e7420697320616c726561647920696e636c756465640000000000604482015290519081900360640190fd5b60005b600854811015610fbc57816001600160a01b031660088281548110610ee857fe5b6000918252602090912001546001600160a01b03161415610fb457600880546000198101908110610f1557fe5b600091825260209091200154600880546001600160a01b039092169183908110610f3b57fe5b600091825260208083209190910180546001600160a01b0319166001600160a01b039485161790559184168152600482526040808220829055600790925220805460ff191690556008805480610f8d57fe5b600082815260209020810160001990810180546001600160a01b0319169055019055610fbc565b600101610ec7565b5050565b6000610c13610fcd611af6565b84610ccb8560056000610fde611af6565b6001600160a01b03908116825260208083019390935260409182016000908120918c16815292529020549061219e565b60105481565b600061101e611af6565b6001600160a01b03811660009081526007602052604090205490915060ff16156110795760405162461bcd60e51b815260040180806020018281038252602c815260200180613058602c913960400191505060405180910390fd5b6000611084836121f8565b505050506001600160a01b0384166000908152600360205260409020549192506110b0919050826122f0565b6001600160a01b038316600090815260036020526040902055600b546110d690826122f0565b600b55600c546110e6908461219e565b600c55505050565b6110f6611af6565b6000546001600160a01b03908116911614611146576040805162461bcd60e51b81526020600482018190526024820152600080516020612fa6833981519152604482015290519081900360640190fd5b6001600160a01b03166000908152600660205260409020805460ff19166001179055565b6000600a548311156111c3576040805162461bcd60e51b815260206004820152601f60248201527f416d6f756e74206d757374206265206c657373207468616e20737570706c7900604482015290519081900360640190fd5b816111e25760006111d3846121f8565b50939550610c17945050505050565b60006111ed846121f8565b50929550610c17945050505050565b7f000000000000000000000000000000000000000000000000000000000000000081565b601854610100900460ff1681565b611236611af6565b6000546001600160a01b03908116911614611286576040805162461bcd60e51b81526020600482018190526024820152600080516020612fa6833981519152604482015290519081900360640190fd5b6001600160a01b03811660009081526007602052604090205460ff16156112f4576040805162461bcd60e51b815260206004820152601b60248201527f4163636f756e7420697320616c7265616479206578636c756465640000000000604482015290519081900360640190fd5b6001600160a01b0381166000908152600360205260409020541561134e576001600160a01b03811660009081526003602052604090205461133490610d37565b6001600160a01b0382166000908152600460205260409020555b6001600160a01b03166000818152600760205260408120805460ff191660019081179091556008805491820181559091527ff3f7a9fe364faab93b216da50a3214154f22a0a2b415b23a84c8169e8b636ee30180546001600160a01b0319169091179055565b6001600160a01b031660009081526006602052604090205460ff1690565b60125481565b6001600160a01b03811660009081526007602052604081205460ff161561141857506001600160a01b038116600090815260046020526040902054610d94565b6001600160a01b038216600090815260036020526040902054610c1790610d37565b611442611af6565b6000546001600160a01b03908116911614611492576040805162461bcd60e51b81526020600482018190526024820152600080516020612fa6833981519152604482015290519081900360640190fd5b600080546040516001600160a01b0390911690600080516020612fc6833981519152908390a3600080546001600160a01b0319169055565b601b5481565b60195481565b6001600160a01b031660009081526007602052604090205460ff1690565b6000546001600160a01b031690565b61150b611af6565b6000546001600160a01b0390811691161461155b576040805162461bcd60e51b81526020600482018190526024820152600080516020612fa6833981519152604482015290519081900360640190fd5b601255565b600e8054604080516020601f6002600019610100600188161502019095169490940493840181900481028201810190925282815260609390929091830182828015610bf55780601f10610bca57610100808354040283529160200191610bf5565b6009546001600160a01b031681565b60165481565b6000610c136115e3611af6565b84610ccb856040518060600160405280602581526020016130a7602591396005600061160d611af6565b6001600160a01b03908116825260208083019390935260409182016000908120918d1681529252902054919061209b565b6001546001600160a01b031633146116875760405162461bcd60e51b81526004018080602001828103825260238152602001806130846023913960400191505060405180910390fd5b60025442116116dd576040805162461bcd60e51b815260206004820152601f60248201527f436f6e7472616374206973206c6f636b656420756e74696c2037206461797300604482015290519081900360640190fd5b600154600080546040516001600160a01b039384169390911691600080516020612fc683398151915291a3600154600080546001600160a01b0319166001600160a01b03909216919091179055565b6000610c13611739611af6565b8484611be6565b60025490565b60145481565b611754611af6565b6000546001600160a01b039081169116146117a4576040805162461bcd60e51b81526020600482018190526024820152600080516020612fa6833981519152604482015290519081900360640190fd5b60188054821515610100810261ff00199092169190911790915560408051918252517f53726dfcaf90650aa7eb35524f4d3220f07413c8d6cb404cc8c18bf5591bc1599181900360200190a150565b6117fb611af6565b6000546001600160a01b0390811691161461184b576040805162461bcd60e51b81526020600482018190526024820152600080516020612fa6833981519152604482015290519081900360640190fd5b601455565b611858611af6565b6000546001600160a01b039081169116146118a8576040805162461bcd60e51b81526020600482018190526024820152600080516020612fa6833981519152604482015290519081900360640190fd5b6118c860646118c283600a5461233290919063ffffffff16565b90612155565b60195550565b6118d6611af6565b6000546001600160a01b03908116911614611926576040805162461bcd60e51b81526020600482018190526024820152600080516020612fa6833981519152604482015290519081900360640190fd5b60008054600180546001600160a01b03199081166001600160a01b038416179091551681554282016002556040518190600080516020612fc6833981519152908290a350565b6001600160a01b03918216600090815260056020908152604080832093909416825291909152205490565b61199f611af6565b6000546001600160a01b039081169116146119ef576040805162461bcd60e51b81526020600482018190526024820152600080516020612fa6833981519152604482015290519081900360640190fd5b6001600160a01b03166000908152600660205260409020805460ff19169055565b611a18611af6565b6000546001600160a01b03908116911614611a68576040805162461bcd60e51b81526020600482018190526024820152600080516020612fa6833981519152604482015290519081900360640190fd5b6001600160a01b038116611aad5760405162461bcd60e51b8152600401808060200182810382526026815260200180612eed6026913960400191505060405180910390fd5b600080546040516001600160a01b0380851693921691600080516020612fc683398151915291a3600080546001600160a01b0319166001600160a01b0392909216919091179055565b3390565b6001600160a01b038316611b3f5760405162461bcd60e51b81526004018080602001828103825260248152602001806130346024913960400191505060405180910390fd5b6001600160a01b038216611b845760405162461bcd60e51b8152600401808060200182810382526022815260200180612f136022913960400191505060405180910390fd5b6001600160a01b03808416600081815260056020908152604080832094871680845294825291829020859055815185815291517f8c5be1e5ebec7d5bd14f71427d1e84f3dd0314c0f7b2291e5b200ac8c7c3b9259281900390910190a3505050565b6001600160a01b038316611c2b5760405162461bcd60e51b815260040180806020018281038252602581526020018061300f6025913960400191505060405180910390fd5b6001600160a01b038216611c705760405162461bcd60e51b8152600401808060200182810382526023815260200180612e716023913960400191505060405180910390fd5b60008111611caf5760405162461bcd60e51b8152600401808060200182810382526029815260200180612fe66029913960400191505060405180910390fd5b6001600160a01b03831660009081526006602052604090205460ff16158015611cf157506001600160a01b03821660009081526006602052604090205460ff16155b8015611d2f57507f00000000000000000000000000000000000000000000000000000000000000006001600160a01b0316826001600160a01b031614155b15611dc757601954811115611d755760405162461bcd60e51b8152600401808060200182810382526028815260200180612f356028913960400191505060405180910390fd5b6000611d80836113d8565b9050601b548282011115611dc55760405162461bcd60e51b815260040180806020018281038252602f815260200180612e94602f913960400191505060405180910390fd5b505b6000611dd2306113d8565b90506019548110611de257506019545b601a5481108015908190611df9575060185460ff16155b8015611e0c5750601854610100900460ff165b15611e1f57601a549150611e1f8261238b565b6001600160a01b03851660009081526006602052604090205460019060ff1680611e6157506001600160a01b03851660009081526006602052604090205460ff165b15611e6a575060005b611e7686868684612428565b801561209357611ebb611e8885612597565b61dead60005260046020527f42c63635470f1fb1d6d4b6441c413cb435b1ebb6fedd1896dd5e25d1399147dd549061219e565b61dead60005260046020527f42c63635470f1fb1d6d4b6441c413cb435b1ebb6fedd1896dd5e25d1399147dd55611f38611f05611ef6612132565b611eff87612597565b90612332565b61dead60005260036020527f262bb27bbdd95c1cdc8e16957e36e38579ea44f7f6413dd7a9c75939def06b2c549061219e565b61dead60005260036020527f262bb27bbdd95c1cdc8e16957e36e38579ea44f7f6413dd7a9c75939def06b2c55611f92611f71856125b3565b6009546001600160a01b03166000908152600460205260409020549061219e565b6009546001600160a01b0316600090815260046020526040902055611fe5611fc4611fbb612132565b611eff876125b3565b6009546001600160a01b03166000908152600360205260409020549061219e565b6009546001600160a01b0390811660009081526003602052604090209190915561dead9087167fddf252ad1be2c89b69c2b068fc378daa952ba7f163c4a11628f55a4df523b3ef61203587612597565b60408051918252519081900360200190a36009546001600160a01b039081169087167fddf252ad1be2c89b69c2b068fc378daa952ba7f163c4a11628f55a4df523b3ef612081876125b3565b60408051918252519081900360200190a35b505050505050565b6000818484111561212a5760405162461bcd60e51b81526004018080602001828103825283818151815260200191508051906020019080838360005b838110156120ef5781810151838201526020016120d7565b50505050905090810190601f16801561211c5780820380516001836020036101000a031916815260200191505b509250505060405180910390fd5b505050900390565b600080600061213f6125cf565b909250905061214e8282612155565b9250505090565b600061219783836040518060400160405280601a81526020017f536166654d6174683a206469766973696f6e206279207a65726f000000000000815250612732565b9392505050565b600082820183811015612197576040805162461bcd60e51b815260206004820152601b60248201527f536166654d6174683a206164646974696f6e206f766572666c6f770000000000604482015290519081900360640190fd5b600080600080600080600061223461220f89612597565b61222e61221b8b612797565b61222e6122278d6127b3565b8d906122f0565b906122f0565b9050612249612242896125b3565b82906122f0565b90506000612255612132565b9050600061228361226983611eff8d612797565b61222e61227985611eff8f6127b3565b61222e8e87612332565b90506122ac61229583611eff8d6125b3565b61222e6122a585611eff8f612597565b84906122f0565b90506122b88a83612332565b816122c684611eff8e6127b3565b856122d08e6127b3565b6122d98f612797565b949f939e50919c509a509850909650945050505050565b600061219783836040518060400160405280601e81526020017f536166654d6174683a207375627472616374696f6e206f766572666c6f77000081525061209b565b60008261234157506000610c17565b8282028284828161234e57fe5b04146121975760405162461bcd60e51b8152600401808060200182810382526021815260200180612f5d6021913960400191505060405180910390fd5b6018805460ff1916600117905560006123a5826002612155565b905060006123b383836122f0565b9050476123bf836127cf565b60006123cb47836122f0565b90506123d783826129de565b604080518581526020810183905280820185905290517f17bbfb9a6069321b6ded73bd96327c9e6b7212a5cd51ff219cd61370acafb5619181900360600190a150506018805460ff19169055505050565b8061243557612435612adc565b6001600160a01b03841660009081526007602052604090205460ff16801561247657506001600160a01b03831660009081526007602052604090205460ff16155b1561248b57612486848484612b25565b612589565b6001600160a01b03841660009081526007602052604090205460ff161580156124cc57506001600160a01b03831660009081526007602052604090205460ff165b156124dc57612486848484612c49565b6001600160a01b03841660009081526007602052604090205460ff1615801561251e57506001600160a01b03831660009081526007602052604090205460ff16155b1561252e57612486848484612cf2565b6001600160a01b03841660009081526007602052604090205460ff16801561256e57506001600160a01b03831660009081526007602052604090205460ff165b1561257e57612486848484612d36565b612589848484612cf2565b612591612da9565b50505050565b6000610c1760646118c26014548561233290919063ffffffff16565b6000610c1760646118c26016548561233290919063ffffffff16565b600b54600a546000918291825b600854811015612700578260036000600884815481106125f857fe5b60009182526020808320909101546001600160a01b03168352820192909252604001902054118061265d575081600460006008848154811061263657fe5b60009182526020808320909101546001600160a01b03168352820192909252604001902054115b1561267457600b54600a549450945050505061272e565b6126b4600360006008848154811061268857fe5b60009182526020808320909101546001600160a01b0316835282019290925260400190205484906122f0565b92506126f660046000600884815481106126ca57fe5b60009182526020808320909101546001600160a01b0316835282019290925260400190205483906122f0565b91506001016125dc565b50600a54600b5461271091612155565b82101561272857600b54600a5493509350505061272e565b90925090505b9091565b600081836127815760405162461bcd60e51b81526020600482018181528351602484015283519092839260449091019190850190808383600083156120ef5781810151838201526020016120d7565b50600083858161278d57fe5b0495945050505050565b6000610c1760646118c26012548561233290919063ffffffff16565b6000610c1760646118c26010548561233290919063ffffffff16565b604080516002808252606080830184529260208301908036833701905050905030816000815181106127fd57fe5b60200260200101906001600160a01b031690816001600160a01b0316815250507f00000000000000000000000000000000000000000000000000000000000000006001600160a01b031663ad5c46486040518163ffffffff1660e01b815260040160206040518083038186803b15801561287657600080fd5b505afa15801561288a573d6000803e3d6000fd5b505050506040513d60208110156128a057600080fd5b50518151829060019081106128b157fe5b60200260200101906001600160a01b031690816001600160a01b0316815250506128fc307f000000000000000000000000000000000000000000000000000000000000000084611afa565b7f00000000000000000000000000000000000000000000000000000000000000006001600160a01b031663791ac9478360008430426040518663ffffffff1660e01b81526004018086815260200185815260200180602001846001600160a01b03168152602001838152602001828103825285818151815260200191508051906020019060200280838360005b838110156129a1578181015183820152602001612989565b505050509050019650505050505050600060405180830381600087803b1580156129ca57600080fd5b505af1158015612093573d6000803e3d6000fd5b612a09307f000000000000000000000000000000000000000000000000000000000000000084611afa565b7f00000000000000000000000000000000000000000000000000000000000000006001600160a01b031663f305d719823085600080612a466114f4565b426040518863ffffffff1660e01b815260040180876001600160a01b03168152602001868152602001858152602001848152602001836001600160a01b0316815260200182815260200196505050505050506060604051808303818588803b158015612ab157600080fd5b505af1158015612ac5573d6000803e3d6000fd5b50505050506040513d606081101561259157600080fd5b601054158015612aec5750601254155b8015612af85750601454155b8015612b045750601654155b15612b0e57612b23565b60006010819055601281905560148190556016555b565b600080600080600080612b37876121f8565b6001600160a01b038f16600090815260046020526040902054959b50939950919750955093509150612b6990886122f0565b6001600160a01b038a16600090815260046020908152604080832093909355600390522054612b9890876122f0565b6001600160a01b03808b1660009081526003602052604080822093909355908a1681522054612bc7908661219e565b6001600160a01b038916600090815260036020526040902055612be981612dc3565b612bf38483612e4c565b876001600160a01b0316896001600160a01b03167fddf252ad1be2c89b69c2b068fc378daa952ba7f163c4a11628f55a4df523b3ef856040518082815260200191505060405180910390a3505050505050505050565b600080600080600080612c5b876121f8565b6001600160a01b038f16600090815260036020526040902054959b50939950919750955093509150612c8d90876122f0565b6001600160a01b03808b16600090815260036020908152604080832094909455918b16815260049091522054612cc3908461219e565b6001600160a01b038916600090815260046020908152604080832093909355600390522054612bc7908661219e565b600080600080600080612d04876121f8565b6001600160a01b038f16600090815260036020526040902054959b50939950919750955093509150612b9890876122f0565b600080600080600080612d48876121f8565b6001600160a01b038f16600090815260046020526040902054959b50939950919750955093509150612d7a90886122f0565b6001600160a01b038a16600090815260046020908152604080832093909355600390522054612c8d90876122f0565b601154601055601354601255601554601455601754601655565b6000612dcd612132565b90506000612ddb8383612332565b30600090815260036020526040902054909150612df8908261219e565b3060009081526003602090815260408083209390935560079052205460ff1615612e475730600090815260046020526040902054612e36908461219e565b306000908152600460205260409020555b505050565b600b54612e5990836122f0565b600b55600c54612e69908261219e565b600c55505056fe45524332303a207472616e7366657220746f20746865207a65726f206164647265737345786365656473206d6178696d756d2077616c6c657420746f6b656e20616d6f756e742028332c3834342c30303029416d6f756e74206d757374206265206c657373207468616e20746f74616c207265666c656374696f6e734f776e61626c653a206e6577206f776e657220697320746865207a65726f206164647265737345524332303a20617070726f766520746f20746865207a65726f20616464726573735472616e7366657220616d6f756e74206578636565647320746865206d61785478416d6f756e742e536166654d6174683a206d756c7469706c69636174696f6e206f766572666c6f7745524332303a207472616e7366657220616d6f756e74206578636565647320616c6c6f77616e63654f776e61626c653a2063616c6c6572206973206e6f7420746865206f776e65728be0079c531659141344cd1fd0a4f28419497f9722a3daafe3b4186f6b6457e05472616e7366657220616d6f756e74206d7573742062652067726561746572207468616e207a65726f45524332303a207472616e736665722066726f6d20746865207a65726f206164647265737345524332303a20617070726f76652066726f6d20746865207a65726f20616464726573734578636c75646564206164647265737365732063616e6e6f742063616c6c20746869732066756e6374696f6e596f7520646f6e27742068617665207065726d697373696f6e20746f20756e6c6f636b45524332303a2064656372656173656420616c6c6f77616e63652062656c6f77207a65726fa264697066735822122004ec6d03bb2a739b1ba2c90257a762a1ee171e0bfe4e423436e6d40cea7e99ad64736f6c634300060c0033000000000000000000000000d4025990cf51ecc86314dfb06784c7837820402d

Constructor Arguments (ABI-Encoded and is the last bytes of the Contract Creation Code above)

000000000000000000000000d4025990cf51ecc86314dfb06784c7837820402d

-----Decoded View---------------
Arg [0] : marketingAndDev (address): 0xd4025990cf51ecc86314dfb06784c7837820402d

-----Encoded View---------------
1 Constructor Arguments found :
Arg [0] : 000000000000000000000000d4025990cf51ecc86314dfb06784c7837820402d


Deployed ByteCode Sourcemap

25646:20539:0:-:0;;;;;;;;;;;;;;;;;;;;;;;;;;;;;;;;;;;;;;;;;;;;;;;;;;;;;;;;;;;;;;;;;;;;;;;;;;;;;;;;;;;;;;;;;;;;;;;;;;;;;;;;;;;;;;;;;;;;;;;;;;;;;;;;;;;;;;;;;;;;;;;;;;;;;;;;;;;;;;;;;;;;;;;;;;;;;;;;;;;;;;;;;;;;;;;;;;;;;;;;;;;;;;;;;;;;;;;;;;;;;;;;;;;;;;;;;;;;;;;;;;;;;;;;;;;;;;;;;;;;;;;;;;;;;;;;;;;;;;;;;;;;;;;;;;;;;;;;;;;34058:10;-1:-1:-1;;;;;34080:15:0;34058:38;;;:69;;-1:-1:-1;34100:10:0;-1:-1:-1;;;;;34114:13:0;34100:27;;34058:69;:148;;;;34182:15;-1:-1:-1;;;;;34163:40:0;;:42;;;;;;;;;;;;;;;;;;;;;;;;;;;;;;;;;;;;;;;;;;;;;;;;;;;;;;;;;;;;;;;-1:-1:-1;34163:42:0;-1:-1:-1;;;;;34141:65:0;:10;:65;34058:148;34050:183;;;;;-1:-1:-1;;;34050:183:0;;;;;;;;;;;;;;;;;;;;;;;;;;;;25646:20539;;;;;32990:98;;;;;;;;;;;;;;;;;;;;;;;;;;-1:-1:-1;32990:98:0;;:::i;28695:83::-;;;;;;;;;;;;;:::i;:::-;;;;;;;;;;;;;;;;;;;;;;;;;;;;;;;;;;;;;;;;;;;;;;;;;;;;;;;;;;;;;;;;;;;;;;;;;;;;;;;;;;;;;;;;;;;;;;;;;;;;29607:161;;;;;;;;;;;;;;;;;;;;;;;;;;-1:-1:-1;;;;;;29607:161:0;;;;;;;;:::i;:::-;;;;;;;;;;;;;;;;;;30728:87;;;;;;;;;;;;;:::i;:::-;;;;;;;;;;;;;;;;26133:47;;;;;;;;;;;;;:::i;:::-;;;;-1:-1:-1;;;;;26133:47:0;;;;;;;;;;;;;;27030:51;;;;;;;;;;;;;:::i;28972:95::-;;;;;;;;;;;;;:::i;29776:313::-;;;;;;;;;;;;;;;;;;;;;;;;;;-1:-1:-1;;;;;;29776:313:0;;;;;;;;;;;;;;;;;:::i;33518:116::-;;;;;;;;;;;;;;;;;;;;;;;;;;-1:-1:-1;33518:116:0;;:::i;31652:253::-;;;;;;;;;;;;;;;;;;;;;;;;;;-1:-1:-1;31652:253:0;;:::i;28881:83::-;;;;;;;;;;;;;:::i;:::-;;;;;;;;;;;;;;;;;;;33646:122;;;;;;;;;;;;;;;;;;;;;;;;;;-1:-1:-1;33646:122:0;;:::i;32254:479::-;;;;;;;;;;;;;;;;;;;;;;;;;;-1:-1:-1;32254:479:0;-1:-1:-1;;;;;32254:479:0;;:::i;30097:218::-;;;;;;;;;;;;;;;;;;;;;;;;;;-1:-1:-1;;;;;;30097:218:0;;;;;;;;:::i;26507:26::-;;;;;;;;;;;;;:::i;30823:377::-;;;;;;;;;;;;;;;;;;;;;;;;;;-1:-1:-1;30823:377:0;;:::i;32745:111::-;;;;;;;;;;;;;;;;;;;;;;;;;;-1:-1:-1;32745:111:0;-1:-1:-1;;;;;32745:111:0;;:::i;31208:436::-;;;;;;;;;;;;;;;;;;;;;;;;;;-1:-1:-1;31208:436:0;;;;;;;;;:::i;27088:38::-;;;;;;;;;;;;;:::i;27167:40::-;;;;;;;;;;;;;:::i;31913:333::-;;;;;;;;;;;;;;;;;;;;;;;;;;-1:-1:-1;31913:333:0;-1:-1:-1;;;;;31913:333:0;;:::i;37682:123::-;;;;;;;;;;;;;;;;;;;;;;;;;;-1:-1:-1;37682:123:0;-1:-1:-1;;;;;37682:123:0;;:::i;26628:32::-;;;;;;;;;;;;;:::i;29075:198::-;;;;;;;;;;;;;;;;;;;;;;;;;;-1:-1:-1;29075:198:0;-1:-1:-1;;;;;29075:198:0;;:::i;16217:148::-;;;;;;;;;;;;;:::i;27342:48::-;;;;;;;;;;;;;:::i;27220:45::-;;;;;;;;;;;;;:::i;30600:120::-;;;;;;;;;;;;;;;;;;;;;;;;;;-1:-1:-1;30600:120:0;-1:-1:-1;;;;;30600:120:0;;:::i;15574:79::-;;;;;;;;;;;;;:::i;33100:122::-;;;;;;;;;;;;;;;;;;;;;;;;;;-1:-1:-1;33100:122:0;;:::i;28786:87::-;;;;;;;;;;;;;:::i;26095:31::-;;;;;;;;;;;;;:::i;26864:42::-;;;;;;;;;;;;;:::i;30323:269::-;;;;;;;;;;;;;;;;;;;;;;;;;;-1:-1:-1;;;;;;30323:269:0;;;;;;;;:::i;17239:305::-;;;;;;;;;;;;;:::i;29281:167::-;;;;;;;;;;;;;;;;;;;;;;;;;;-1:-1:-1;;;;;;29281:167:0;;;;;;;;:::i;16772:89::-;;;;;;;;;;;;;:::i;26759:27::-;;;;;;;;;;;;;:::i;33780:171::-;;;;;;;;;;;;;;;;;;;;;;;;;;-1:-1:-1;33780:171:0;;;;:::i;33234:102::-;;;;;;;;;;;;;;;;;;;;;;;;;;-1:-1:-1;33234:102:0;;:::i;33348:162::-;;;;;;;;;;;;;;;;;;;;;;;;;;-1:-1:-1;33348:162:0;;:::i;16937:226::-;;;;;;;;;;;;;;;;;;;;;;;;;;-1:-1:-1;16937:226:0;;:::i;29456:143::-;;;;;;;;;;;;;;;;;;;;;;;;;;-1:-1:-1;;;;;;29456:143:0;;;;;;;;;;:::i;32868:110::-;;;;;;;;;;;;;;;;;;;;;;;;;;-1:-1:-1;32868:110:0;-1:-1:-1;;;;;32868:110:0;;:::i;16520:244::-;;;;;;;;;;;;;;;;;;;;;;;;;;-1:-1:-1;16520:244:0;-1:-1:-1;;;;;16520:244:0;;:::i;32990:98::-;15796:12;:10;:12::i;:::-;15786:6;;-1:-1:-1;;;;;15786:6:0;;;:22;;;15778:67;;;;;-1:-1:-1;;;15778:67:0;;;;;;;;;;;;;-1:-1:-1;;;;;;;;;;;15778:67:0;;;;;;;;;;;;;;;33064:7:::1;:16:::0;32990:98::o;28695:83::-;28765:5;28758:12;;;;;;;;-1:-1:-1;;28758:12:0;;;;;;;;;;;;;;;;;;;;;;;;;;;;;;;;28732:13;;28758:12;;28765:5;;28758:12;;28765:5;28758:12;;;;;;;;;;;;;;;;;;;;;;;;;;;;;;;;;;;;;;;;;;;;;;;;;;;;;;;;;;;;;;;;;;;28695:83;:::o;29607:161::-;29682:4;29699:39;29708:12;:10;:12::i;:::-;29722:7;29731:6;29699:8;:39::i;:::-;-1:-1:-1;29756:4:0;29607:161;;;;;:::o;30728:87::-;30797:10;;30728:87;:::o;26133:47::-;26173:6;26133:47;:::o;27030:51::-;;;:::o;28972:95::-;29052:7;;28972:95;:::o;29776:313::-;29874:4;29891:36;29901:6;29909:9;29920:6;29891:9;:36::i;:::-;29938:121;29947:6;29955:12;:10;:12::i;:::-;29969:89;30007:6;29969:89;;;;;;;;;;;;;;;;;-1:-1:-1;;;;;29969:19:0;;;;;;:11;:19;;;;;;29989:12;:10;:12::i;:::-;-1:-1:-1;;;;;29969:33:0;;;;;;;;;;;;-1:-1:-1;29969:33:0;;;:89;:37;:89::i;:::-;29938:8;:121::i;:::-;-1:-1:-1;30077:4:0;29776:313;;;;;:::o;33518:116::-;15796:12;:10;:12::i;:::-;15786:6;;-1:-1:-1;;;;;15786:6:0;;;:22;;;15778:67;;;;;-1:-1:-1;;;15778:67:0;;;;;;;;;;;;;-1:-1:-1;;;;;;;;;;;15778:67:0;;;;;;;;;;;;;;;33596:15:::1;:30:::0;33518:116::o;31652:253::-;31718:7;31757;;31746;:18;;31738:73;;;;-1:-1:-1;;;31738:73:0;;;;;;;;;;;;;;;;;;;;;;;;;;;;;;;;;;;;31822:19;31845:10;:8;:10::i;:::-;31822:33;-1:-1:-1;31873:24:0;:7;31822:33;31873:11;:24::i;:::-;31866:31;;;31652:253;;;;:::o;28881:83::-;28947:9;;;;28881:83;:::o;33646:122::-;15796:12;:10;:12::i;:::-;15786:6;;-1:-1:-1;;;;;15786:6:0;;;:22;;;15778:67;;;;;-1:-1:-1;;;15778:67:0;;;;;;;;;;;;;-1:-1:-1;;;;;;;;;;;15778:67:0;;;;;;;;;;;;;;;33730:23:::1;:30:::0;33646:122::o;32254:479::-;15796:12;:10;:12::i;:::-;15786:6;;-1:-1:-1;;;;;15786:6:0;;;:22;;;15778:67;;;;;-1:-1:-1;;;15778:67:0;;;;;;;;;;;;;-1:-1:-1;;;;;;;;;;;15778:67:0;;;;;;;;;;;;;;;-1:-1:-1;;;;;32336:20:0;::::1;;::::0;;;:11:::1;:20;::::0;;;;;::::1;;32328:60;;;::::0;;-1:-1:-1;;;32328:60:0;;::::1;;::::0;::::1;::::0;::::1;::::0;;;;::::1;::::0;;;;;;;;;;;;;::::1;;32404:9;32399:327;32423:9;:16:::0;32419:20;::::1;32399:327;;;32481:7;-1:-1:-1::0;;;;;32465:23:0::1;:9;32475:1;32465:12;;;;;;;;;::::0;;;::::1;::::0;;;::::1;::::0;-1:-1:-1;;;;;32465:12:0::1;:23;32461:254;;;32524:9;32534:16:::0;;-1:-1:-1;;32534:20:0;;;32524:31;::::1;;;;;;::::0;;;::::1;::::0;;;::::1;::::0;32509:9:::1;:12:::0;;-1:-1:-1;;;;;32524:31:0;;::::1;::::0;32519:1;;32509:12;::::1;;;;;;::::0;;;::::1;::::0;;;;;;::::1;:46:::0;;-1:-1:-1;;;;;;32509:46:0::1;-1:-1:-1::0;;;;;32509:46:0;;::::1;;::::0;;32574:16;;::::1;::::0;;:7:::1;:16:::0;;;;;;:20;;;32613:11:::1;:20:::0;;;;:28;;-1:-1:-1;;32613:28:0::1;::::0;;32660:9:::1;:15:::0;;;::::1;;;;;::::0;;;::::1;::::0;;;;-1:-1:-1;;32660:15:0;;;;;-1:-1:-1;;;;;;32660:15:0::1;::::0;;;;;32694:5:::1;;32461:254;32441:3;;32399:327;;;;32254:479:::0;:::o;30097:218::-;30185:4;30202:83;30211:12;:10;:12::i;:::-;30225:7;30234:50;30273:10;30234:11;:25;30246:12;:10;:12::i;:::-;-1:-1:-1;;;;;30234:25:0;;;;;;;;;;;;;;;;;-1:-1:-1;30234:25:0;;;:34;;;;;;;;;;;:38;:50::i;26507:26::-;;;;:::o;30823:377::-;30875:14;30892:12;:10;:12::i;:::-;-1:-1:-1;;;;;30924:19:0;;;;;;:11;:19;;;;;;30875:29;;-1:-1:-1;30924:19:0;;30923:20;30915:77;;;;-1:-1:-1;;;30915:77:0;;;;;;;;;;;;;;;;;;;;;;;;;;;;;;;;;;;;31004:15;31028:19;31039:7;31028:10;:19::i;:::-;-1:-1:-1;;;;;;;;;31076:15:0;;;;;;:7;:15;;;;;;31003:44;;-1:-1:-1;31076:28:0;;:15;-1:-1:-1;31003:44:0;31076:19;:28::i;:::-;-1:-1:-1;;;;;31058:15:0;;;;;;:7;:15;;;;;:46;31125:7;;:20;;31137:7;31125:11;:20::i;:::-;31115:7;:30;31169:10;;:23;;31184:7;31169:14;:23::i;:::-;31156:10;:36;-1:-1:-1;;;30823:377:0:o;32745:111::-;15796:12;:10;:12::i;:::-;15786:6;;-1:-1:-1;;;;;15786:6:0;;;:22;;;15778:67;;;;;-1:-1:-1;;;15778:67:0;;;;;;;;;;;;;-1:-1:-1;;;;;;;;;;;15778:67:0;;;;;;;;;;;;;;;-1:-1:-1;;;;;32814:27:0::1;;::::0;;;:18:::1;:27;::::0;;;;:34;;-1:-1:-1;;32814:34:0::1;32844:4;32814:34;::::0;;32745:111::o;31208:436::-;31298:7;31337;;31326;:18;;31318:62;;;;;-1:-1:-1;;;31318:62:0;;;;;;;;;;;;;;;;;;;;;;;;;;;;31396:17;31391:246;;31431:15;31455:19;31466:7;31455:10;:19::i;:::-;-1:-1:-1;31430:44:0;;-1:-1:-1;31489:14:0;;-1:-1:-1;;;;;31489:14:0;31391:246;31538:23;31569:19;31580:7;31569:10;:19::i;:::-;-1:-1:-1;31536:52:0;;-1:-1:-1;31603:22:0;;-1:-1:-1;;;;;31603:22:0;27088:38;;;:::o;27167:40::-;;;;;;;;;:::o;31913:333::-;15796:12;:10;:12::i;:::-;15786:6;;-1:-1:-1;;;;;15786:6:0;;;:22;;;15778:67;;;;;-1:-1:-1;;;15778:67:0;;;;;;;;;;;;;-1:-1:-1;;;;;;;;;;;15778:67:0;;;;;;;;;;;;;;;-1:-1:-1;;;;;31996:20:0;::::1;;::::0;;;:11:::1;:20;::::0;;;;;::::1;;31995:21;31987:61;;;::::0;;-1:-1:-1;;;31987:61:0;;::::1;;::::0;::::1;::::0;::::1;::::0;;;;::::1;::::0;;;;;;;;;;;;;::::1;;-1:-1:-1::0;;;;;32062:16:0;::::1;32081:1;32062:16:::0;;;:7:::1;:16;::::0;;;;;:20;32059:108:::1;;-1:-1:-1::0;;;;;32138:16:0;::::1;;::::0;;;:7:::1;:16;::::0;;;;;32118:37:::1;::::0;:19:::1;:37::i;:::-;-1:-1:-1::0;;;;;32099:16:0;::::1;;::::0;;;:7:::1;:16;::::0;;;;:56;32059:108:::1;-1:-1:-1::0;;;;;32177:20:0::1;;::::0;;;:11:::1;:20;::::0;;;;:27;;-1:-1:-1;;32177:27:0::1;32200:4;32177:27:::0;;::::1;::::0;;;32215:9:::1;:23:::0;;;;::::1;::::0;;;;;;::::1;::::0;;-1:-1:-1;;;;;;32215:23:0::1;::::0;;::::1;::::0;;31913:333::o;37682:123::-;-1:-1:-1;;;;;37770:27:0;37746:4;37770:27;;;:18;:27;;;;;;;;;37682:123::o;26628:32::-;;;;:::o;29075:198::-;-1:-1:-1;;;;;29165:20:0;;29141:7;29165:20;;;:11;:20;;;;;;;;29161:49;;;-1:-1:-1;;;;;;29194:16:0;;;;;;:7;:16;;;;;;29187:23;;29161:49;-1:-1:-1;;;;;29248:16:0;;;;;;:7;:16;;;;;;29228:37;;:19;:37::i;16217:148::-;15796:12;:10;:12::i;:::-;15786:6;;-1:-1:-1;;;;;15786:6:0;;;:22;;;15778:67;;;;;-1:-1:-1;;;15778:67:0;;;;;;;;;;;;;-1:-1:-1;;;;;;;;;;;15778:67:0;;;;;;;;;;;;;;;16324:1:::1;16308:6:::0;;16287:40:::1;::::0;-1:-1:-1;;;;;16308:6:0;;::::1;::::0;-1:-1:-1;;;;;;;;;;;16287:40:0;16324:1;;16287:40:::1;16355:1;16338:19:::0;;-1:-1:-1;;;;;;16338:19:0::1;::::0;;16217:148::o;27342:48::-;;;;:::o;27220:45::-;;;;:::o;30600:120::-;-1:-1:-1;;;;;30692:20:0;30668:4;30692:20;;;:11;:20;;;;;;;;;30600:120::o;15574:79::-;15612:7;15639:6;-1:-1:-1;;;;;15639:6:0;15574:79;:::o;33100:122::-;15796:12;:10;:12::i;:::-;15786:6;;-1:-1:-1;;;;;15786:6:0;;;:22;;;15778:67;;;;;-1:-1:-1;;;15778:67:0;;;;;;;;;;;;;-1:-1:-1;;;;;;;;;;;15778:67:0;;;;;;;;;;;;;;;33186:13:::1;:28:::0;33100:122::o;28786:87::-;28858:7;28851:14;;;;;;;;-1:-1:-1;;28851:14:0;;;;;;;;;;;;;;;;;;;;;;;;;;;;;;;;28825:13;;28851:14;;28858:7;;28851:14;;28858:7;28851:14;;;;;;;;;;;;;;;;;;;;;;;;26095:31;;;-1:-1:-1;;;;;26095:31:0;;:::o;26864:42::-;;;;:::o;30323:269::-;30416:4;30433:129;30442:12;:10;:12::i;:::-;30456:7;30465:96;30504:15;30465:96;;;;;;;;;;;;;;;;;:11;:25;30477:12;:10;:12::i;:::-;-1:-1:-1;;;;;30465:25:0;;;;;;;;;;;;;;;;;-1:-1:-1;30465:25:0;;;:34;;;;;;;;;;;:96;:38;:96::i;17239:305::-;17291:14;;-1:-1:-1;;;;;17291:14:0;17309:10;17291:28;17283:76;;;;-1:-1:-1;;;17283:76:0;;;;;;;;;;;;;;;;;;;;;;;;;;;;;;;;;;;;17396:9;;17378:15;:27;17370:72;;;;;-1:-1:-1;;;17370:72:0;;;;;;;;;;;;;;;;;;;;;;;;;;;;17487:14;;;17479:6;;17458:44;;-1:-1:-1;;;;;17487:14:0;;;;17479:6;;;;-1:-1:-1;;;;;;;;;;;17458:44:0;;17522:14;;;17513:23;;-1:-1:-1;;;;;;17513:23:0;-1:-1:-1;;;;;17522:14:0;;;17513:23;;;;;;17239:305::o;29281:167::-;29359:4;29376:42;29386:12;:10;:12::i;:::-;29400:9;29411:6;29376:9;:42::i;16772:89::-;16844:9;;16772:89;:::o;26759:27::-;;;;:::o;33780:171::-;15796:12;:10;:12::i;:::-;15786:6;;-1:-1:-1;;;;;15786:6:0;;;:22;;;15778:67;;;;;-1:-1:-1;;;15778:67:0;;;;;;;;;;;;;-1:-1:-1;;;;;;;;;;;15778:67:0;;;;;;;;;;;;;;;33857:21:::1;:32:::0;;;::::1;;;::::0;::::1;-1:-1:-1::0;;33857:32:0;;::::1;::::0;;;::::1;::::0;;;33905:38:::1;::::0;;;;;;::::1;::::0;;;;::::1;::::0;;::::1;33780:171:::0;:::o;33234:102::-;15796:12;:10;:12::i;:::-;15786:6;;-1:-1:-1;;;;;15786:6:0;;;:22;;;15778:67;;;;;-1:-1:-1;;;15778:67:0;;;;;;;;;;;;;-1:-1:-1;;;;;;;;;;;15778:67:0;;;;;;;;;;;;;;;33310:8:::1;:18:::0;33234:102::o;33348:162::-;15796:12;:10;:12::i;:::-;15786:6;;-1:-1:-1;;;;;15786:6:0;;;:22;;;15778:67;;;;;-1:-1:-1;;;15778:67:0;;;;;;;;;;;;;-1:-1:-1;;;;;;;;;;;15778:67:0;;;;;;;;;;;;;;;33442:60:::1;33486:5;33442:25;33454:12;33442:7;;:11;;:25;;;;:::i;:::-;:29:::0;::::1;:60::i;:::-;33427:12;:75:::0;-1:-1:-1;33348:162:0:o;16937:226::-;15796:12;:10;:12::i;:::-;15786:6;;-1:-1:-1;;;;;15786:6:0;;;:22;;;15778:67;;;;;-1:-1:-1;;;15778:67:0;;;;;;;;;;;;;-1:-1:-1;;;;;;;;;;;15778:67:0;;;;;;;;;;;;;;;17018:6:::1;::::0;;;17001:23;;-1:-1:-1;;;;;;17001:23:0;;::::1;-1:-1:-1::0;;;;;17018:6:0;::::1;17001:23;::::0;;;17035:19:::1;::::0;;17077:15:::1;:22:::0;::::1;17065:9;:34:::0;17115:40:::1;::::0;17018:6;;-1:-1:-1;;;;;;;;;;;17115:40:0;17018:6;;17115:40:::1;16937:226:::0;:::o;29456:143::-;-1:-1:-1;;;;;29564:18:0;;;29537:7;29564:18;;;:11;:18;;;;;;;;:27;;;;;;;;;;;;;29456:143::o;32868:110::-;15796:12;:10;:12::i;:::-;15786:6;;-1:-1:-1;;;;;15786:6:0;;;:22;;;15778:67;;;;;-1:-1:-1;;;15778:67:0;;;;;;;;;;;;;-1:-1:-1;;;;;;;;;;;15778:67:0;;;;;;;;;;;;;;;-1:-1:-1;;;;;32935:27:0::1;32965:5;32935:27:::0;;;:18:::1;:27;::::0;;;;:35;;-1:-1:-1;;32935:35:0::1;::::0;;32868:110::o;16520:244::-;15796:12;:10;:12::i;:::-;15786:6;;-1:-1:-1;;;;;15786:6:0;;;:22;;;15778:67;;;;;-1:-1:-1;;;15778:67:0;;;;;;;;;;;;;-1:-1:-1;;;;;;;;;;;15778:67:0;;;;;;;;;;;;;;;-1:-1:-1;;;;;16609:22:0;::::1;16601:73;;;;-1:-1:-1::0;;;16601:73:0::1;;;;;;;;;;;;;;;;;;;;;;;;;;;;;;;;;;;;16711:6;::::0;;16690:38:::1;::::0;-1:-1:-1;;;;;16690:38:0;;::::1;::::0;16711:6;::::1;::::0;-1:-1:-1;;;;;;;;;;;16690:38:0;::::1;16739:6;:17:::0;;-1:-1:-1;;;;;;16739:17:0::1;-1:-1:-1::0;;;;;16739:17:0;;;::::1;::::0;;;::::1;::::0;;16520:244::o;7973:115::-;8069:10;7973:115;:::o;37813:337::-;-1:-1:-1;;;;;37906:19:0;;37898:68;;;;-1:-1:-1;;;37898:68:0;;;;;;;;;;;;;;;;;;;;;;;;;;;;;;;;;;;;-1:-1:-1;;;;;37985:21:0;;37977:68;;;;-1:-1:-1;;;37977:68:0;;;;;;;;;;;;;;;;;;;;;;;;;;;;;;;;;;;;-1:-1:-1;;;;;38058:18:0;;;;;;;:11;:18;;;;;;;;:27;;;;;;;;;;;;;:36;;;38110:32;;;;;;;;;;;;;;;;;37813:337;;;:::o;38158:2680::-;-1:-1:-1;;;;;38280:18:0;;38272:68;;;;-1:-1:-1;;;38272:68:0;;;;;;;;;;;;;;;;;;;;;;;;;;;;;;;;;;;;-1:-1:-1;;;;;38359:16:0;;38351:64;;;;-1:-1:-1;;;38351:64:0;;;;;;;;;;;;;;;;;;;;;;;;;;;;;;;;;;;;38443:1;38434:6;:10;38426:64;;;;-1:-1:-1;;;38426:64:0;;;;;;;;;;;;;;;;;;;;;;;;;;;;;;;;;;;;-1:-1:-1;;;;;38505:24:0;;;;;;:18;:24;;;;;;;;38504:25;:52;;;;-1:-1:-1;;;;;;38534:22:0;;;;;;:18;:22;;;;;;;;38533:23;38504:52;:75;;;;;38566:13;-1:-1:-1;;;;;38560:19:0;:2;-1:-1:-1;;;;;38560:19:0;;;38504:75;38501:386;;;38613:12;;38603:6;:22;;38595:75;;;;-1:-1:-1;;;38595:75:0;;;;;;;;;;;;;;;;;;;;;;;;;;;;;;;;;;;;38685:24;38712:13;38722:2;38712:9;:13::i;:::-;38685:40;;38777:15;;38767:6;38748:16;:25;:44;;38740:135;;;;-1:-1:-1;;;38740:135:0;;;;;;;;;;;;;;;;;;;;;;;;;;;;;;;;;;;;38501:386;;39195:28;39226:24;39244:4;39226:9;:24::i;:::-;39195:55;;39298:12;;39274:20;:36;39271:112;;-1:-1:-1;39359:12:0;;39271:112;39454:29;;39430:53;;;;;;;39512;;-1:-1:-1;39549:16:0;;;;39548:17;39512:53;:131;;;;-1:-1:-1;39622:21:0;;;;;;;39512:131;39494:320;;;39693:29;;39670:52;;39766:36;39781:20;39766:14;:36::i;:::-;-1:-1:-1;;;;;40022:24:0;;39895:12;40022:24;;;:18;:24;;;;;;39910:4;;40022:24;;;:50;;-1:-1:-1;;;;;;40050:22:0;;;;;;:18;:22;;;;;;;;40022:50;40019:96;;;-1:-1:-1;40098:5:0;40019:96;40201:38;40216:4;40221:2;40224:6;40231:7;40201:14;:38::i;:::-;40253:7;40250:581;;;40293:44;40312:24;40329:6;40312:16;:24::i;:::-;26173:6;40293:14;;:7;:14;;;;;:18;:44::i;:::-;26173:6;40276:14;;:7;:14;;;:61;40369:60;40388:40;40417:10;:8;:10::i;:::-;40388:24;40405:6;40388:16;:24::i;:::-;:28;;:40::i;:::-;26173:6;40369:14;;:7;:14;;;;;:18;:60::i;:::-;26173:6;40352:14;;:7;:14;;;:77;40472:66;40502:35;40530:6;40502:27;:35::i;:::-;40480:16;;-1:-1:-1;;;;;40480:16:0;40472:25;;;;:7;:25;;;;;;;:29;:66::i;:::-;40452:16;;-1:-1:-1;;;;;40452:16:0;40444:25;;;;:7;:25;;;;;:94;40581:82;40611:51;40651:10;:8;:10::i;:::-;40611:35;40639:6;40611:27;:35::i;:51::-;40589:16;;-1:-1:-1;;;;;40589:16:0;40581:25;;;;:7;:25;;;;;;;:29;:82::i;:::-;40561:16;;-1:-1:-1;;;;;40561:16:0;;;40553:25;;;;:7;:25;;;;;:110;;;;26173:6;;40683:47;;;40705:24;40722:6;40705:16;:24::i;:::-;40683:47;;;;;;;;;;;;;;;40765:16;;-1:-1:-1;;;;;40765:16:0;;;;40750:69;;;40783:35;40811:6;40783:27;:35::i;:::-;40750:69;;;;;;;;;;;;;;;40250:581;38158:2680;;;;;;:::o;4383:192::-;4469:7;4505:12;4497:6;;;;4489:29;;;;-1:-1:-1;;;4489:29:0;;;;;;;;;;;;;;;;;;;;;;;;;;;;;;;;;;;;;;;;;;;;;;;;;;;;;;;;;;;;;;;;;;;;;;;;;;;;;;;;;;;;;;;;;;;;;;;;;;;;;;;-1:-1:-1;;;4541:5:0;;;4383:192::o;35342:163::-;35383:7;35404:15;35421;35440:19;:17;:19::i;:::-;35403:56;;-1:-1:-1;35403:56:0;-1:-1:-1;35477:20:0;35403:56;;35477:11;:20::i;:::-;35470:27;;;;35342:163;:::o;5781:132::-;5839:7;5866:39;5870:1;5873;5866:39;;;;;;;;;;;;;;;;;:3;:39::i;:::-;5859:46;5781:132;-1:-1:-1;;;5781:132:0:o;3480:181::-;3538:7;3570:5;;;3594:6;;;;3586:46;;;;;-1:-1:-1;;;3586:46:0;;;;;;;;;;;;;;;;;;;;;;;;;;;34450:882;34509:7;34518;34527;34536;34545;34554;34574:23;34600:104;34678:25;34695:7;34678:16;:25::i;:::-;34600:73;34642:30;34664:7;34642:21;:30::i;:::-;34600:37;34612:24;34628:7;34612:15;:24::i;:::-;34600:7;;:11;:37::i;:::-;:41;;:73::i;:104::-;34574:130;;34733:57;34753:36;34781:7;34753:27;:36::i;:::-;34733:15;;:19;:57::i;:::-;34715:75;;34801:19;34823:10;:8;:10::i;:::-;34801:32;;34844:23;34870:124;34946:47;34981:11;34946:30;34968:7;34946:21;:30::i;:47::-;34870:71;34899:41;34928:11;34899:24;34915:7;34899:15;:24::i;:41::-;34870:24;:7;34882:11;34870;:24::i;:124::-;34844:150;;35023:122;35091:53;35132:11;35091:36;35119:7;35091:27;:36::i;:53::-;35023:63;35043:42;35073:11;35043:25;35060:7;35043:16;:25::i;:42::-;35023:15;;:19;:63::i;:122::-;35005:140;-1:-1:-1;35164:24:0;:7;35176:11;35164;:24::i;:::-;35190:15;35207:41;35236:11;35207:24;35223:7;35207:15;:24::i;:41::-;35250:15;35267:24;35283:7;35267:15;:24::i;:::-;35293:30;35315:7;35293:21;:30::i;:::-;35156:168;;;;-1:-1:-1;35156:168:0;;-1:-1:-1;35156:168:0;-1:-1:-1;35156:168:0;-1:-1:-1;35156:168:0;;-1:-1:-1;34450:882:0;-1:-1:-1;;;;;34450:882:0:o;3944:136::-;4002:7;4029:43;4033:1;4036;4029:43;;;;;;;;;;;;;;;;;:3;:43::i;4834:471::-;4892:7;5137:6;5133:47;;-1:-1:-1;5167:1:0;5160:8;;5133:47;5204:5;;;5208:1;5204;:5;:1;5228:5;;;;;:10;5220:56;;;;-1:-1:-1;;;5220:56:0;;;;;;;;;;;;;;;;;;;;;;;;;;;;;;;;;;;40846:985;27697:16;:23;;-1:-1:-1;;27697:23:0;27716:4;27697:23;;;:16;40997:27:::1;:20:::0;41022:1:::1;40997:24;:27::i;:::-;40982:42:::0;-1:-1:-1;41035:17:0::1;41055:30;:20:::0;40982:42;41055:24:::1;:30::i;:::-;41035:50:::0;-1:-1:-1;41388:21:0::1;41454:22;41471:4:::0;41454:16:::1;:22::i;:::-;41607:18;41628:41;:21;41654:14:::0;41628:25:::1;:41::i;:::-;41607:62;;41719:35;41732:9;41743:10;41719:12;:35::i;:::-;41780:43;::::0;;;;;::::1;::::0;::::1;::::0;;;;;;;;;;;::::1;::::0;;;;;;;::::1;-1:-1:-1::0;;27743:16:0;:24;;-1:-1:-1;;27743:24:0;;;-1:-1:-1;;;40846:985:0:o;43030:808::-;43141:7;43137:40;;43163:14;:12;:14::i;:::-;-1:-1:-1;;;;;43202:19:0;;;;;;:11;:19;;;;;;;;:46;;;;-1:-1:-1;;;;;;43226:22:0;;;;;;:11;:22;;;;;;;;43225:23;43202:46;43198:597;;;43265:48;43287:6;43295:9;43306:6;43265:21;:48::i;:::-;43198:597;;;-1:-1:-1;;;;;43336:19:0;;;;;;:11;:19;;;;;;;;43335:20;:46;;;;-1:-1:-1;;;;;;43359:22:0;;;;;;:11;:22;;;;;;;;43335:46;43331:464;;;43398:46;43418:6;43426:9;43437:6;43398:19;:46::i;43331:464::-;-1:-1:-1;;;;;43467:19:0;;;;;;:11;:19;;;;;;;;43466:20;:47;;;;-1:-1:-1;;;;;;43491:22:0;;;;;;:11;:22;;;;;;;;43490:23;43466:47;43462:333;;;43530:44;43548:6;43556:9;43567:6;43530:17;:44::i;43462:333::-;-1:-1:-1;;;;;43596:19:0;;;;;;:11;:19;;;;;;;;:45;;;;-1:-1:-1;;;;;;43619:22:0;;;;;;:11;:22;;;;;;;;43596:45;43592:203;;;43658:48;43680:6;43688:9;43699:6;43658:21;:48::i;43592:203::-;43739:44;43757:6;43765:9;43776:6;43739:17;:44::i;:::-;43815:15;:13;:15::i;:::-;43030:808;;;;:::o;36793:156::-;36858:7;36885:56;36925:5;36885:21;36897:8;;36885:7;:11;;:21;;;;:::i;36967:182::-;37043:7;37070:71;37125:5;37070:36;37082:23;;37070:7;:11;;:36;;;;:::i;35513:561::-;35610:7;;35646;;35563;;;;;35670:289;35694:9;:16;35690:20;;35670:289;;;35760:7;35736;:21;35744:9;35754:1;35744:12;;;;;;;;;;;;;;;;;;;;-1:-1:-1;;;;;35744:12:0;35736:21;;;;;;;;;;;;;:31;;:66;;;35795:7;35771;:21;35779:9;35789:1;35779:12;;;;;;;;;;;;;;;;;;;;-1:-1:-1;;;;;35779:12:0;35771:21;;;;;;;;;;;;;:31;35736:66;35732:97;;;35812:7;;35821;;35804:25;;;;;;;;;35732:97;35854:34;35866:7;:21;35874:9;35884:1;35874:12;;;;;;;;;;;;;;;;;;;;-1:-1:-1;;;;;35874:12:0;35866:21;;;;;;;;;;;;;35854:7;;:11;:34::i;:::-;35844:44;;35913:34;35925:7;:21;35933:9;35943:1;35933:12;;;;;;;;;;;;;;;;;;;;-1:-1:-1;;;;;35933:12:0;35925:21;;;;;;;;;;;;;35913:7;;:11;:34::i;:::-;35903:44;-1:-1:-1;35712:3:0;;35670:289;;;-1:-1:-1;35995:7:0;;35983;;:20;;:11;:20::i;:::-;35973:7;:30;35969:61;;;36013:7;;36022;;36005:25;;;;;;;;35969:61;36049:7;;-1:-1:-1;36058:7:0;-1:-1:-1;35513:561:0;;;:::o;6409:278::-;6495:7;6530:12;6523:5;6515:28;;;;-1:-1:-1;;;6515:28:0;;;;;;;;;;;;;;;;;;;;;;;;;;;;;;;;;;;;;;;;;;;;;;;;;;;;6554:9;6570:1;6566;:5;;;;;;;6409:278;-1:-1:-1;;;;;6409:278:0:o;36615:166::-;36685:7;36712:61;36757:5;36712:26;36724:13;;36712:7;:11;;:26;;;;:::i;36453:154::-;36517:7;36544:55;36583:5;36544:20;36556:7;;36544;:11;;:20;;;;:::i;41839:589::-;41989:16;;;42003:1;41989:16;;;41965:21;41989:16;;;;;41965:21;41989:16;;;;;;;;;;-1:-1:-1;41989:16:0;41965:40;;42034:4;42016;42021:1;42016:7;;;;;;;;;;;;;:23;-1:-1:-1;;;;;42016:23:0;;;-1:-1:-1;;;;;42016:23:0;;;;;42060:15;-1:-1:-1;;;;;42060:20:0;;:22;;;;;;;;;;;;;;;;;;;;;;;;;;;;;;;;;;;;;;;;;;;;;;;;;;;;;;;;;;;;;;;-1:-1:-1;42060:22:0;42050:7;;:4;;42055:1;;42050:7;;;;;;;;;;;:32;-1:-1:-1;;;;;42050:32:0;;;-1:-1:-1;;;;;42050:32:0;;;;;42095:62;42112:4;42127:15;42145:11;42095:8;:62::i;:::-;42196:15;-1:-1:-1;;;;;42196:66:0;;42277:11;42303:1;42347:4;42374;42394:15;42196:224;;;;;;;;;;;;;;;;;;;;;;;;;;-1:-1:-1;;;;;42196:224:0;;;;;;;;;;;;;;;;;;;;;;;;;;;;;;;;;;;;;;;;;;;;;;;;;;;;;;;;;;;;;;;;;;;;;;;;;;;;;;;;;;;;;;;;;;;;;;;;;;;;;;;;;;;42436:513;42584:62;42601:4;42616:15;42634:11;42584:8;:62::i;:::-;42689:15;-1:-1:-1;;;;;42689:31:0;;42728:9;42761:4;42781:11;42807:1;42850;42893:7;:5;:7::i;:::-;42915:15;42689:252;;;;;;;;;;;;;-1:-1:-1;;;;;42689:252:0;;;;;;;;;;;;;;;;;;;;;-1:-1:-1;;;;;42689:252:0;;;;;;;;;;;;;;;;;;;;;;;;;;;;;;;;;;;;;;;;;;;;;;;;;;;;;;;;;;;;;;;;;;;;;;;37167:267;37213:7;;:12;:34;;;;-1:-1:-1;37229:13:0;;:18;37213:34;:51;;;;-1:-1:-1;37251:8:0;;:13;37213:51;:84;;;;-1:-1:-1;37269:23:0;;:28;37213:84;37210:96;;;37299:7;;37210:96;37336:1;37326:7;:11;;;37348:13;:17;;;37376:8;:12;;;37399:23;:27;37167:267;:::o;44950:566::-;45053:15;45070:23;45095:12;45109:23;45134:12;45148:18;45170:19;45181:7;45170:10;:19::i;:::-;-1:-1:-1;;;;;45218:15:0;;;;;;:7;:15;;;;;;45052:137;;-1:-1:-1;45052:137:0;;-1:-1:-1;45052:137:0;;-1:-1:-1;45052:137:0;-1:-1:-1;45052:137:0;-1:-1:-1;45052:137:0;-1:-1:-1;45218:28:0;;45238:7;45218:19;:28::i;:::-;-1:-1:-1;;;;;45200:15:0;;;;;;:7;:15;;;;;;;;:46;;;;45275:7;:15;;;;:28;;45295:7;45275:19;:28::i;:::-;-1:-1:-1;;;;;45257:15:0;;;;;;;:7;:15;;;;;;:46;;;;45335:18;;;;;;;:39;;45358:15;45335:22;:39::i;:::-;-1:-1:-1;;;;;45314:18:0;;;;;;:7;:18;;;;;:60;45388:26;45403:10;45388:14;:26::i;:::-;45425:23;45437:4;45443;45425:11;:23::i;:::-;45481:9;-1:-1:-1;;;;;45464:44:0;45473:6;-1:-1:-1;;;;;45464:44:0;;45492:15;45464:44;;;;;;;;;;;;;;;;;;44950:566;;;;;;;;;:::o;44356:586::-;44457:15;44474:23;44499:12;44513:23;44538:12;44552:18;44574:19;44585:7;44574:10;:19::i;:::-;-1:-1:-1;;;;;44622:15:0;;;;;;:7;:15;;;;;;44456:137;;-1:-1:-1;44456:137:0;;-1:-1:-1;44456:137:0;;-1:-1:-1;44456:137:0;-1:-1:-1;44456:137:0;-1:-1:-1;44456:137:0;-1:-1:-1;44622:28:0;;44456:137;44622:19;:28::i;:::-;-1:-1:-1;;;;;44604:15:0;;;;;;;:7;:15;;;;;;;;:46;;;;44682:18;;;;;:7;:18;;;;;:39;;44705:15;44682:22;:39::i;:::-;-1:-1:-1;;;;;44661:18:0;;;;;;:7;:18;;;;;;;;:60;;;;44753:7;:18;;;;:39;;44776:15;44753:22;:39::i;43846:502::-;43945:15;43962:23;43987:12;44001:23;44026:12;44040:18;44062:19;44073:7;44062:10;:19::i;:::-;-1:-1:-1;;;;;44110:15:0;;;;;;:7;:15;;;;;;43944:137;;-1:-1:-1;43944:137:0;;-1:-1:-1;43944:137:0;;-1:-1:-1;43944:137:0;-1:-1:-1;43944:137:0;-1:-1:-1;43944:137:0;-1:-1:-1;44110:28:0;;43944:137;44110:19;:28::i;45528:642::-;45631:15;45648:23;45673:12;45687:23;45712:12;45726:18;45748:19;45759:7;45748:10;:19::i;:::-;-1:-1:-1;;;;;45796:15:0;;;;;;:7;:15;;;;;;45630:137;;-1:-1:-1;45630:137:0;;-1:-1:-1;45630:137:0;;-1:-1:-1;45630:137:0;-1:-1:-1;45630:137:0;-1:-1:-1;45630:137:0;-1:-1:-1;45796:28:0;;45816:7;45796:19;:28::i;:::-;-1:-1:-1;;;;;45778:15:0;;;;;;:7;:15;;;;;;;;:46;;;;45853:7;:15;;;;:28;;45873:7;45853:19;:28::i;37446:224::-;37500:15;;37490:7;:25;37542:21;;37526:13;:37;37585:16;;37574:8;:27;37638:24;;37612:23;:50;37446:224::o;36086:355::-;36149:19;36172:10;:8;:10::i;:::-;36149:33;-1:-1:-1;36193:18:0;36214:27;:10;36149:33;36214:14;:27::i;:::-;36293:4;36277:22;;;;:7;:22;;;;;;36193:48;;-1:-1:-1;36277:38:0;;36193:48;36277:26;:38::i;:::-;36268:4;36252:22;;;;:7;:22;;;;;;;;:63;;;;36329:11;:26;;;;;;36326:107;;;36411:4;36395:22;;;;:7;:22;;;;;;:38;;36422:10;36395:26;:38::i;:::-;36386:4;36370:22;;;;:7;:22;;;;;:63;36326:107;36086:355;;;:::o;34249:147::-;34327:7;;:17;;34339:4;34327:11;:17::i;:::-;34317:7;:27;34368:10;;:20;;34383:4;34368:14;:20::i;:::-;34355:10;:33;-1:-1:-1;;34249:147:0:o

Swarm Source

ipfs://04ec6d03bb2a739b1ba2c90257a762a1ee171e0bfe4e423436e6d40cea7e99ad
Block Transaction Gas Used Reward
Age Block Fee Address BC Fee Address Voting Power Jailed Incoming
Block Uncle Number Difficulty Gas Used Reward
Loading
Loading
Make sure to use the "Vote Down" button for any spammy posts, and the "Vote Up" for interesting conversations.